Time,TemperatureF,DewpointF,PressureIn,WindDirection,WindDirectionDegrees,WindSpeedMPH,WindSpeedGustMPH,Humidity,HourlyPrecipIn,Conditions,Clouds,dailyrainin,SolarRadiationWatts/m^2,SoftwareType,DateUTC
2013-12-21 00:00:00,36.5,32.1,29.81,SSW,198,2.0,2.0,84,0.02,,,0.17,0.00,VWS V15.00,2013-12-21 05:00:00,
2013-12-21 00:01:00,36.5,32.1,29.82,SSW,199,1.0,2.0,84,0.02,,OVC027,0.17,0.00,VWS V14.01,2013-12-21 05:01:00,
2013-12-21 00:06:00,36.5,32.4,29.81,SSW,195,0.0,2.0,85,0.02,,OVC027,0.00,0.00,VWS V14.01,2013-12-21 05:06:00,
2013-12-21 00:07:00,36.5,32.4,29.81,SSW,195,0.0,2.0,85,0.02,,OVC027,0.00,0.00,VWS V14.01,2013-12-21 05:07:00,
2013-12-21 00:11:00,36.5,32.4,29.81,SSW,195,0.0,2.0,85,0.02,,OVC027,0.00,0.00,VWS V14.01,2013-12-21 05:11:00,
2013-12-21 00:12:00,36.5,32.4,29.81,SSW,195,1.0,2.0,85,0.02,,OVC027,0.00,0.00,VWS V14.01,2013-12-21 05:12:00,
2013-12-21 00:16:00,36.3,32.2,29.81,SSW,195,1.0,2.0,85,0.02,,OVC027,0.00,0.00,VWS V14.01,2013-12-21 05:16:00,
2013-12-21 00:17:00,36.3,32.2,29.81,SSW,195,0.0,2.0,85,0.02,,OVC027,0.00,0.00,VWS V14.01,2013-12-21 05:17:00,
2013-12-21 00:19:00,36.3,32.2,29.82,SSW,195,0.0,2.0,85,0.02,,OVC027,0.00,0.00,VWS V14.01,2013-12-21 05:19:00,
2013-12-21 00:22:00,36.3,32.2,29.82,SE,136,1.0,2.0,85,0.02,,OVC027,0.00,0.00,VWS V14.01,2013-12-21 05:22:00,
2013-12-21 00:23:00,36.3,32.2,29.82,SE,136,0.0,2.0,85,0.02,,OVC027,0.00,0.00,VWS V14.01,2013-12-21 05:23:00,
2013-12-21 00:24:00,36.2,32.1,29.82,SE,136,0.0,2.0,85,0.02,,OVC027,0.00,0.00,VWS V14.01,2013-12-21 05:24:00,
2013-12-21 00:25:00,36.2,32.1,29.82,SE,136,0.0,2.0,85,0.02,,OVC027,0.00,0.00,VWS V14.01,2013-12-21 05:25:00,
2013-12-21 00:27:00,36.2,32.1,29.82,SE,136,0.0,2.0,85,0.02,,OVC027,0.00,0.00,VWS V14.01,2013-12-21 05:27:00,
2013-12-21 00:28:00,36.2,32.1,29.82,SE,136,0.0,2.0,85,0.02,,OVC027,0.00,0.00,VWS V14.01,2013-12-21 05:28:00,
2013-12-21 00:29:00,36.2,32.1,29.82,SE,136,0.0,2.0,85,0.02,,OVC027,0.00,0.00,VWS V14.01,2013-12-21 05:29:00,
2013-12-21 00:30:00,36.2,32.1,29.82,SE,136,0.0,2.0,85,0.02,,OVC027,0.00,0.00,VWS V14.01,2013-12-21 05:30:00,
2013-12-21 00:32:00,36.2,32.1,29.82,SE,136,1.0,2.0,85,0.02,,OVC027,0.00,0.00,VWS V14.01,2013-12-21 05:32:00,
2013-12-21 00:33:00,36.0,31.9,29.82,SE,136,1.0,1.0,85,0.01,,OVC027,0.00,0.00,VWS V14.01,2013-12-21 05:33:00,
2013-12-21 00:35:00,36.0,31.9,29.82,SE,136,1.0,2.0,85,0.01,,OVC027,0.00,0.00,VWS V14.01,2013-12-21 05:35:00,
2013-12-21 00:36:00,36.0,31.9,29.82,SE,136,0.0,2.0,85,0.01,,OVC027,0.00,0.00,VWS V14.01,2013-12-21 05:36:00,
2013-12-21 00:37:00,36.0,31.9,29.82,SE,136,0.0,2.0,85,0.01,,OVC027,0.00,0.00,VWS V14.01,2013-12-21 05:37:00,
2013-12-21 00:38:00,35.9,31.8,29.82,SE,136,0.0,2.0,85,0.01,,OVC027,0.00,0.00,VWS V14.01,2013-12-21 05:38:00,
2013-12-21 00:39:00,35.9,31.8,29.82,SE,136,0.0,2.0,85,0.01,,OVC027,0.00,0.00,VWS V14.01,2013-12-21 05:39:00,
2013-12-21 00:40:00,35.9,31.8,29.82,SE,136,0.0,2.0,85,0.01,,OVC027,0.00,0.00,VWS V14.01,2013-12-21 05:40:00,
2013-12-21 00:42:00,35.9,31.8,29.82,SE,136,1.0,2.0,85,0.01,,OVC027,0.00,0.00,VWS V14.01,2013-12-21 05:42:00,
2013-12-21 00:43:00,35.9,31.8,29.82,SE,133,1.0,2.0,85,0.01,,OVC027,0.00,0.00,VWS V14.01,2013-12-21 05:43:00,
2013-12-21 00:44:00,35.8,31.7,29.82,SE,133,0.0,2.0,85,0.01,,OVC027,0.00,0.00,VWS V14.01,2013-12-21 05:44:00,
2013-12-21 00:45:00,35.8,31.7,29.82,SE,133,0.0,2.0,85,0.01,,OVC027,0.00,0.00,VWS V14.01,2013-12-21 05:45:00,
2013-12-21 00:47:00,35.8,31.7,29.81,SE,133,0.0,2.0,85,0.01,,OVC027,0.00,0.00,VWS V14.01,2013-12-21 05:47:00,
2013-12-21 00:48:00,35.8,31.7,29.81,SE,133,0.0,2.0,85,0.01,,OVC027,0.00,0.00,VWS V14.01,2013-12-21 05:48:00,
2013-12-21 00:49:00,35.6,31.5,29.81,SE,133,1.0,2.0,85,0.01,,OVC027,0.00,0.00,VWS V14.01,2013-12-21 05:49:00,
2013-12-21 00:50:00,35.6,31.5,29.81,SE,133,1.0,2.0,85,0.01,,OVC027,0.00,0.00,VWS V14.01,2013-12-21 05:50:00,
2013-12-21 00:52:00,35.6,31.8,29.81,SE,133,0.0,2.0,86,0.01,,OVC027,0.00,0.00,VWS V14.01,2013-12-21 05:52:00,
2013-12-21 00:53:00,35.6,31.8,29.81,SE,133,0.0,2.0,86,0.01,,OVC027,0.00,0.00,VWS V14.01,2013-12-21 05:53:00,
2013-12-21 00:55:00,35.5,31.7,29.81,SE,133,0.0,2.0,86,0.01,,OVC027,0.00,0.00,VWS V14.01,2013-12-21 05:55:00,
2013-12-21 00:58:00,35.5,31.7,29.81,SE,133,0.0,2.0,86,0.02,,OVC027,0.01,0.00,VWS V14.01,2013-12-21 05:58:00,
2013-12-21 01:00:00,35.5,31.7,29.81,SE,133,2.0,2.0,86,0.02,,OVC031,0.01,0.00,VWS V14.01,2013-12-21 06:00:00,
2013-12-21 01:01:00,35.5,31.7,29.81,SE,133,1.0,2.0,86,0.02,,OVC031,0.01,0.00,VWS V14.01,2013-12-21 06:01:00,
2013-12-21 01:03:00,35.3,31.8,29.81,SE,133,1.0,1.0,87,0.01,,OVC031,0.01,0.00,VWS V14.01,2013-12-21 06:03:00,
2013-12-21 01:04:00,35.3,31.8,29.81,SE,133,0.0,1.0,87,0.01,,OVC031,0.01,0.00,VWS V14.01,2013-12-21 06:04:00,
2013-12-21 01:05:00,35.3,31.8,29.81,SE,133,0.0,1.0,87,0.01,,OVC031,0.01,0.00,VWS V14.01,2013-12-21 06:05:00,
2013-12-21 01:07:00,35.3,31.8,29.81,ESE,121,1.0,2.0,87,0.01,,OVC031,0.01,0.00,VWS V14.01,2013-12-21 06:07:00,
2013-12-21 01:09:00,35.2,31.7,29.81,ESE,120,1.0,2.0,87,0.01,,OVC031,0.01,0.00,VWS V14.01,2013-12-21 06:09:00,
2013-12-21 01:11:00,35.2,31.7,29.81,East,90,0.0,2.0,87,0.01,,OVC031,0.01,0.00,VWS V14.01,2013-12-21 06:11:00,
2013-12-21 01:12:00,35.2,31.7,29.81,East,90,1.0,2.0,87,0.01,,OVC031,0.01,0.00,VWS V14.01,2013-12-21 06:12:00,
2013-12-21 01:14:00,35.0,31.5,29.81,East,90,0.0,2.0,87,0.01,,OVC031,0.01,0.00,VWS V14.01,2013-12-21 06:14:00,
2013-12-21 01:15:00,35.0,31.5,29.81,East,90,0.0,2.0,87,0.01,,OVC031,0.01,0.00,VWS V14.01,2013-12-21 06:15:00,
2013-12-21 01:16:00,35.0,31.8,29.81,East,90,0.0,2.0,88,0.01,,OVC031,0.01,0.00,VWS V14.01,2013-12-21 06:16:00,
2013-12-21 01:17:00,34.9,31.7,29.80,East,90,1.0,2.0,88,0.01,,OVC031,0.01,0.00,VWS V14.01,2013-12-21 06:17:00,
2013-12-21 01:20:00,34.9,31.7,29.80,East,90,1.0,2.0,88,0.01,,OVC031,0.01,0.00,VWS V14.01,2013-12-21 06:20:00,
2013-12-21 01:21:00,34.9,31.7,29.80,East,86,2.0,2.0,88,0.01,,OVC031,0.01,0.00,VWS V14.01,2013-12-21 06:21:00,
2013-12-21 01:22:00,34.9,31.7,29.80,East,90,2.0,2.0,88,0.01,,OVC031,0.01,0.00,VWS V14.01,2013-12-21 06:22:00,
2013-12-21 01:25:00,34.7,31.5,29.80,East,90,1.0,2.0,88,0.01,,OVC031,0.01,0.00,VWS V14.01,2013-12-21 06:25:00,
2013-12-21 01:26:00,34.7,31.5,29.80,East,90,1.0,2.0,88,0.01,,OVC031,0.01,0.00,VWS V14.01,2013-12-21 06:26:00,
2013-12-21 01:27:00,34.7,31.5,29.80,East,90,1.0,2.0,88,0.01,,OVC031,0.01,0.00,VWS V14.01,2013-12-21 06:27:00,
2013-12-21 01:28:00,34.7,31.5,29.80,East,100,1.0,2.0,88,0.01,,OVC031,0.01,0.00,VWS V14.01,2013-12-21 06:28:00,
2013-12-21 01:30:00,34.6,31.4,29.80,East,100,1.0,2.0,88,0.01,,OVC031,0.01,0.00,VWS V14.01,2013-12-21 06:30:00,
2013-12-21 01:31:00,34.6,31.4,29.80,East,100,1.0,2.0,88,0.01,,OVC031,0.01,0.00,VWS V14.01,2013-12-21 06:31:00,
2013-12-21 01:32:00,34.6,31.7,29.80,ESE,102,1.0,2.0,89,0.01,,OVC031,0.01,0.00,VWS V14.01,2013-12-21 06:32:00,
2013-12-21 01:33:00,34.6,31.7,29.80,ESE,102,1.0,2.0,89,0.01,,OVC031,0.01,0.00,VWS V14.01,2013-12-21 06:33:00,
2013-12-21 01:34:00,34.6,31.7,29.80,ESE,102,1.0,2.0,89,0.02,,OVC031,0.02,0.00,VWS V14.01,2013-12-21 06:34:00,
2013-12-21 01:35:00,34.6,31.7,29.80,ESE,107,1.0,2.0,89,0.02,,OVC031,0.02,0.00,VWS V14.01,2013-12-21 06:35:00,
2013-12-21 01:36:00,34.6,31.7,29.80,ESE,107,1.0,2.0,89,0.02,,OVC031,0.02,0.00,VWS V14.01,2013-12-21 06:36:00,
2013-12-21 01:37:00,34.4,31.5,29.80,ESE,107,0.0,2.0,89,0.02,,OVC031,0.02,0.00,VWS V14.01,2013-12-21 06:37:00,
2013-12-21 01:38:00,34.4,31.5,29.80,ESE,107,0.0,2.0,89,0.02,,OVC031,0.02,0.00,VWS V14.01,2013-12-21 06:38:00,
2013-12-21 01:39:00,34.4,31.5,29.80,ESE,103,0.0,2.0,89,0.02,,OVC031,0.02,0.00,VWS V14.01,2013-12-21 06:39:00,
2013-12-21 01:40:00,34.4,31.5,29.80,ESE,103,0.0,2.0,89,0.02,,OVC031,0.02,0.00,VWS V14.01,2013-12-21 06:40:00,
2013-12-21 01:42:00,34.4,31.5,29.80,ESE,104,0.0,2.0,89,0.02,,OVC031,0.02,0.00,VWS V14.01,2013-12-21 06:42:00,
2013-12-21 01:43:00,34.4,31.5,29.80,ESE,104,0.0,2.0,89,0.02,,OVC031,0.02,0.00,VWS V14.01,2013-12-21 06:43:00,
2013-12-21 01:45:00,34.3,31.4,29.80,ESE,104,0.0,2.0,89,0.02,,OVC031,0.02,0.00,VWS V14.01,2013-12-21 06:45:00,
2013-12-21 01:46:00,34.3,31.4,29.80,ESE,104,0.0,2.0,89,0.02,,OVC031,0.02,0.00,VWS V14.01,2013-12-21 06:46:00,
2013-12-21 01:47:00,34.3,31.4,29.81,ESE,104,0.0,2.0,89,0.02,,OVC031,0.02,0.00,VWS V14.01,2013-12-21 06:47:00,
2013-12-21 01:48:00,34.3,31.4,29.81,ESE,104,0.0,2.0,89,0.02,,OVC031,0.02,0.00,VWS V14.01,2013-12-21 06:48:00,
2013-12-21 01:50:00,34.3,31.4,29.81,ESE,104,1.0,2.0,89,0.02,,OVC031,0.02,0.00,VWS V14.01,2013-12-21 06:50:00,
2013-12-21 01:51:00,34.3,31.4,29.81,ESE,104,1.0,2.0,89,0.02,,OVC031,0.02,0.00,VWS V14.01,2013-12-21 06:51:00,
2013-12-21 01:52:00,34.3,31.4,29.81,ESE,104,0.0,2.0,89,0.02,,OVC031,0.02,0.00,VWS V14.01,2013-12-21 06:52:00,
2013-12-21 01:53:00,34.3,31.4,29.81,ESE,104,0.0,2.0,89,0.02,,OVC031,0.02,0.00,VWS V14.01,2013-12-21 06:53:00,
2013-12-21 01:54:00,34.3,31.4,29.81,ESE,104,1.0,2.0,89,0.02,,OVC031,0.02,0.00,VWS V14.01,2013-12-21 06:54:00,
2013-12-21 01:56:00,34.3,31.7,29.81,ESE,104,0.0,2.0,90,0.02,,OVC031,0.02,0.00,VWS V14.01,2013-12-21 06:56:00,
2013-12-21 01:58:00,34.1,31.5,29.81,ESE,104,0.0,2.0,90,0.02,,OVC031,0.02,0.00,VWS V14.01,2013-12-21 06:58:00,
2013-12-21 01:59:00,34.1,31.5,29.81,ESE,104,0.0,2.0,90,0.02,,OVC031,0.02,0.00,VWS V14.01,2013-12-21 06:59:00,
2013-12-21 02:00:00,34.1,31.5,29.80,ESE,104,0.0,2.0,90,0.02,,,0.02,0.00,VWS V15.00,2013-12-21 07:00:00,
2013-12-21 02:01:00,34.1,31.5,29.81,ESE,104,0.0,2.0,90,0.02,,OVC033,0.02,0.00,VWS V14.01,2013-12-21 07:01:00,
2013-12-21 02:02:00,34.1,31.5,29.81,ESE,104,0.0,2.0,90,0.02,,OVC033,0.02,0.00,VWS V14.01,2013-12-21 07:02:00,
2013-12-21 02:03:00,34.1,31.5,29.80,ESE,104,0.0,2.0,90,0.02,,OVC033,0.02,0.00,VWS V14.01,2013-12-21 07:03:00,
2013-12-21 02:04:00,34.1,31.5,29.80,ENE,73,0.0,2.0,90,0.01,,OVC033,0.02,0.00,VWS V14.01,2013-12-21 07:04:00,
2013-12-21 02:05:00,34.1,31.5,29.80,NE,44,2.0,2.0,90,0.01,,OVC033,0.02,0.00,VWS V14.01,2013-12-21 07:05:00,
2013-12-21 02:07:00,34.1,31.5,29.80,NE,44,0.0,2.0,90,0.01,,OVC033,0.02,0.00,VWS V14.01,2013-12-21 07:07:00,
2013-12-21 02:08:00,34.0,31.4,29.80,NE,44,0.0,2.0,90,0.01,,OVC033,0.02,0.00,VWS V14.01,2013-12-21 07:08:00,
2013-12-21 02:09:00,34.0,31.4,29.80,NE,44,0.0,2.0,90,0.01,,OVC033,0.02,0.00,VWS V14.01,2013-12-21 07:09:00,
2013-12-21 02:10:00,34.0,31.4,29.80,NE,44,0.0,2.0,90,0.01,,OVC033,0.02,0.00,VWS V14.01,2013-12-21 07:10:00,
2013-12-21 02:13:00,34.0,31.4,29.80,NE,44,1.0,2.0,90,0.01,,OVC033,0.02,0.00,VWS V14.01,2013-12-21 07:13:00,
2013-12-21 02:14:00,34.0,31.4,29.80,NE,44,0.0,2.0,90,0.01,,OVC033,0.02,0.00,VWS V14.01,2013-12-21 07:14:00,
2013-12-21 02:15:00,34.0,31.4,29.80,NE,44,0.0,2.0,90,0.01,,OVC033,0.02,0.00,VWS V14.01,2013-12-21 07:15:00,
2013-12-21 02:16:00,34.0,31.4,29.80,NE,44,1.0,2.0,90,0.01,,OVC033,0.02,0.00,VWS V14.01,2013-12-21 07:16:00,
2013-12-21 02:17:00,34.0,31.4,29.80,NE,44,0.0,2.0,90,0.01,,OVC033,0.02,0.00,VWS V14.01,2013-12-21 07:17:00,
2013-12-21 02:19:00,34.0,31.6,29.81,NE,44,0.0,2.0,91,0.01,,OVC033,0.02,0.00,VWS V14.01,2013-12-21 07:19:00,
2013-12-21 02:20:00,34.0,31.6,29.81,NE,44,1.0,2.0,91,0.01,,OVC033,0.02,0.00,VWS V14.01,2013-12-21 07:20:00,
2013-12-21 02:21:00,34.0,31.6,29.81,NE,44,0.0,2.0,91,0.01,,OVC033,0.02,0.00,VWS V14.01,2013-12-21 07:21:00,
2013-12-21 02:22:00,33.8,31.5,29.81,NE,44,0.0,2.0,91,0.01,,OVC033,0.02,0.00,VWS V14.01,2013-12-21 07:22:00,
2013-12-21 02:24:00,33.8,31.5,29.81,NE,44,0.0,2.0,91,0.01,,OVC033,0.02,0.00,VWS V14.01,2013-12-21 07:24:00,
2013-12-21 02:25:00,33.8,31.5,29.81,NE,44,0.0,2.0,91,0.01,,OVC033,0.02,0.00,VWS V14.01,2013-12-21 07:25:00,
2013-12-21 02:26:00,33.8,31.5,29.81,NE,44,0.0,2.0,91,0.01,,OVC033,0.02,0.00,VWS V14.01,2013-12-21 07:26:00,
2013-12-21 02:27:00,33.8,31.5,29.81,NE,44,1.0,2.0,91,0.01,,OVC033,0.02,0.00,VWS V14.01,2013-12-21 07:27:00,
2013-12-21 02:29:00,33.8,31.5,29.81,NE,44,1.0,2.0,91,0.01,,OVC033,0.02,0.00,VWS V14.01,2013-12-21 07:29:00,
2013-12-21 02:30:00,33.8,31.5,29.81,NE,44,1.0,2.0,91,0.01,,OVC033,0.02,0.00,VWS V14.01,2013-12-21 07:30:00,
2013-12-21 02:31:00,33.8,31.5,29.81,NE,44,1.0,2.0,91,0.01,,OVC033,0.02,0.00,VWS V14.01,2013-12-21 07:31:00,
2013-12-21 02:33:00,33.8,31.5,29.80,NE,44,1.0,2.0,91,0.01,,OVC033,0.02,0.00,VWS V14.01,2013-12-21 07:33:00,
2013-12-21 02:34:00,33.8,31.5,29.80,NE,44,0.0,1.0,91,0.01,,OVC033,0.02,0.00,VWS V14.01,2013-12-21 07:34:00,
2013-12-21 02:35:00,33.8,31.5,29.80,NE,44,0.0,1.0,91,0.01,,OVC033,0.02,0.00,VWS V14.01,2013-12-21 07:35:00,
2013-12-21 02:36:00,33.8,31.5,29.80,NE,44,1.0,1.0,91,0.01,,OVC033,0.02,0.00,VWS V14.01,2013-12-21 07:36:00,
2013-12-21 02:37:00,33.8,31.5,29.80,NE,44,1.0,2.0,91,0.01,,OVC033,0.02,0.00,VWS V14.01,2013-12-21 07:37:00,
2013-12-21 02:39:00,33.7,31.4,29.80,NE,44,1.0,2.0,91,0.01,,OVC033,0.02,0.00,VWS V14.01,2013-12-21 07:39:00,
2013-12-21 02:40:00,33.7,31.4,29.80,NE,44,1.0,2.0,91,0.01,,OVC033,0.02,0.00,VWS V14.01,2013-12-21 07:40:00,
2013-12-21 02:41:00,33.7,31.4,29.80,NE,44,1.0,2.0,91,0.01,,OVC033,0.02,0.00,VWS V14.01,2013-12-21 07:41:00,
2013-12-21 02:43:00,33.7,31.4,29.80,NE,44,0.0,2.0,91,0.01,,OVC033,0.02,0.00,VWS V14.01,2013-12-21 07:43:00,
2013-12-21 02:44:00,33.7,31.4,29.80,NE,44,0.0,2.0,91,0.01,,OVC033,0.02,0.00,VWS V14.01,2013-12-21 07:44:00,
2013-12-21 02:45:00,33.7,31.6,29.80,NE,44,0.0,2.0,92,0.01,,OVC033,0.02,0.00,VWS V14.01,2013-12-21 07:45:00,
2013-12-21 02:46:00,33.7,31.6,29.80,NE,44,1.0,2.0,92,0.01,,OVC033,0.02,0.00,VWS V14.01,2013-12-21 07:46:00,
2013-12-21 02:47:00,33.7,31.6,29.80,NE,44,0.0,2.0,92,0.01,,OVC033,0.02,0.00,VWS V14.01,2013-12-21 07:47:00,
2013-12-21 02:48:00,33.7,31.6,29.80,NE,40,0.0,2.0,92,0.01,,OVC033,0.02,0.00,VWS V14.01,2013-12-21 07:48:00,
2013-12-21 02:49:00,33.7,31.6,29.80,NE,44,0.0,2.0,92,0.01,,OVC033,0.02,0.00,VWS V14.01,2013-12-21 07:49:00,
2013-12-21 02:51:00,33.7,31.6,29.80,NE,44,1.0,2.0,92,0.01,,OVC033,0.02,0.00,VWS V14.01,2013-12-21 07:51:00,
2013-12-21 02:52:00,33.7,31.6,29.80,NE,44,1.0,2.0,92,0.01,,OVC033,0.02,0.00,VWS V14.01,2013-12-21 07:52:00,
2013-12-21 02:54:00,33.7,31.6,29.80,NE,44,1.0,2.0,92,0.01,,OVC033,0.02,0.00,VWS V14.01,2013-12-21 07:54:00,
2013-12-21 02:56:00,33.7,31.6,29.80,NE,44,2.0,2.0,92,0.01,,OVC033,0.02,0.00,VWS V14.01,2013-12-21 07:56:00,
2013-12-21 02:57:00,33.5,31.4,29.80,NE,44,1.0,2.0,92,0.01,,OVC033,0.02,0.00,VWS V14.01,2013-12-21 07:57:00,
2013-12-21 02:59:00,33.5,31.4,29.80,NE,44,1.0,2.0,92,0.01,,OVC033,0.02,0.00,VWS V14.01,2013-12-21 07:59:00,
2013-12-21 03:00:00,33.5,31.4,29.80,ENE,65,0.0,2.0,92,0.01,,OVC033,0.02,0.00,VWS V14.01,2013-12-21 08:00:00,
2013-12-21 03:02:00,33.5,31.4,29.80,East,90,2.0,2.0,92,0.01,,OVC027,0.02,0.00,VWS V14.01,2013-12-21 08:02:00,
2013-12-21 03:03:00,33.5,31.4,29.80,East,89,0.0,1.0,92,0.00,,OVC027,0.02,0.00,VWS V14.01,2013-12-21 08:03:00,
2013-12-21 03:04:00,33.5,31.4,29.80,East,89,0.0,1.0,92,0.00,,OVC027,0.02,0.00,VWS V14.01,2013-12-21 08:04:00,
2013-12-21 03:05:00,33.5,31.4,29.80,East,89,0.0,1.0,92,0.00,,OVC027,0.02,0.00,VWS V14.01,2013-12-21 08:05:00,
2013-12-21 03:07:00,33.5,31.4,29.80,East,89,0.0,1.0,92,0.00,,OVC027,0.02,0.00,VWS V14.01,2013-12-21 08:07:00,
2013-12-21 03:08:00,33.5,31.4,29.80,East,89,0.0,1.0,92,0.00,,OVC027,0.02,0.00,VWS V14.01,2013-12-21 08:08:00,
2013-12-21 03:09:00,33.5,31.4,29.80,East,89,0.0,1.0,92,0.00,,OVC027,0.02,0.00,VWS V14.01,2013-12-21 08:09:00,
2013-12-21 03:10:00,33.5,31.4,29.80,East,89,0.0,1.0,92,0.00,,OVC027,0.02,0.00,VWS V14.01,2013-12-21 08:10:00,
2013-12-21 03:11:00,33.5,31.4,29.80,East,89,0.0,1.0,92,0.00,,OVC027,0.02,0.00,VWS V14.01,2013-12-21 08:11:00,
2013-12-21 03:12:00,33.5,31.4,29.80,East,89,0.0,1.0,92,0.00,,OVC027,0.02,0.00,VWS V14.01,2013-12-21 08:12:00,
2013-12-21 03:13:00,33.5,31.4,29.80,East,89,0.0,1.0,92,0.00,,OVC027,0.02,0.00,VWS V14.01,2013-12-21 08:13:00,
2013-12-21 03:14:00,33.5,31.4,29.80,East,89,0.0,1.0,92,0.00,,OVC027,0.02,0.00,VWS V14.01,2013-12-21 08:14:00,
2013-12-21 03:16:00,33.5,31.4,29.80,East,89,0.0,1.0,92,0.00,,OVC027,0.02,0.00,VWS V14.01,2013-12-21 08:16:00,
2013-12-21 03:17:00,33.5,31.4,29.80,East,89,0.0,1.0,92,0.00,,OVC027,0.02,0.00,VWS V14.01,2013-12-21 08:17:00,
2013-12-21 03:18:00,33.5,31.4,29.80,East,89,0.0,1.0,92,0.00,,OVC027,0.02,0.00,VWS V14.01,2013-12-21 08:18:00,
2013-12-21 03:19:00,33.5,31.4,29.80,East,89,0.0,1.0,92,0.00,,OVC027,0.02,0.00,VWS V14.01,2013-12-21 08:19:00,
2013-12-21 03:21:00,33.4,31.3,29.80,East,89,0.0,1.0,92,0.00,,OVC027,0.02,0.00,VWS V14.01,2013-12-21 08:21:00,
2013-12-21 03:23:00,33.4,31.3,29.80,East,89,0.0,1.0,92,0.00,,OVC027,0.02,0.00,VWS V14.01,2013-12-21 08:23:00,
2013-12-21 03:24:00,33.4,31.3,29.80,East,89,0.0,1.0,92,0.00,,OVC027,0.02,0.00,VWS V14.01,2013-12-21 08:24:00,
2013-12-21 03:26:00,33.4,31.3,29.80,East,89,0.0,1.0,92,0.00,,OVC027,0.02,0.00,VWS V14.01,2013-12-21 08:26:00,
2013-12-21 03:28:00,33.4,31.3,29.80,East,89,0.0,1.0,92,0.00,,OVC027,0.02,0.00,VWS V14.01,2013-12-21 08:28:00,
2013-12-21 03:29:00,33.4,31.3,29.80,East,89,0.0,1.0,92,0.00,,OVC027,0.02,0.00,VWS V14.01,2013-12-21 08:29:00,
2013-12-21 03:30:00,33.4,31.3,29.81,East,89,0.0,1.0,92,0.00,,,0.02,0.00,VWS V15.00,2013-12-21 08:30:00,
2013-12-21 03:32:00,33.4,31.3,29.80,East,89,0.0,1.0,92,0.00,,OVC027,0.02,0.00,VWS V14.01,2013-12-21 08:32:00,
2013-12-21 03:33:00,33.4,31.3,29.81,East,89,0.0,0.0,92,0.00,,OVC027,0.02,0.00,VWS V14.01,2013-12-21 08:33:00,
2013-12-21 03:34:00,33.4,31.6,29.81,East,89,0.0,0.0,93,0.00,,OVC027,0.02,0.00,VWS V14.01,2013-12-21 08:34:00,
2013-12-21 03:35:00,33.4,31.6,29.81,East,89,0.0,0.0,93,0.00,,OVC027,0.02,0.00,VWS V14.01,2013-12-21 08:35:00,
2013-12-21 03:38:00,33.4,31.6,29.81,East,89,0.0,0.0,93,0.00,,OVC027,0.02,0.00,VWS V14.01,2013-12-21 08:38:00,
2013-12-21 03:39:00,33.4,31.6,29.81,East,89,0.0,0.0,93,0.00,,OVC027,0.02,0.00,VWS V14.01,2013-12-21 08:39:00,
2013-12-21 03:40:00,33.4,31.6,29.81,East,89,0.0,0.0,93,0.00,,OVC027,0.02,0.00,VWS V14.01,2013-12-21 08:40:00,
2013-12-21 03:43:00,33.4,31.6,29.81,East,89,0.0,0.0,93,0.00,,OVC027,0.02,0.00,VWS V14.01,2013-12-21 08:43:00,
2013-12-21 03:44:00,33.4,31.6,29.81,East,89,0.0,0.0,93,0.00,,OVC027,0.02,0.00,VWS V14.01,2013-12-21 08:44:00,
2013-12-21 03:45:00,33.4,31.6,29.81,East,89,0.0,0.0,93,0.00,,OVC027,0.02,0.00,VWS V14.01,2013-12-21 08:45:00,
2013-12-21 03:46:00,33.4,31.6,29.81,East,89,0.0,0.0,93,0.00,,OVC027,0.02,0.00,VWS V14.01,2013-12-21 08:46:00,
2013-12-21 03:48:00,33.4,31.6,29.80,East,89,0.0,0.0,93,0.01,,OVC027,0.03,0.00,VWS V14.01,2013-12-21 08:48:00,
2013-12-21 03:49:00,33.4,31.6,29.80,East,89,0.0,0.0,93,0.01,,OVC027,0.03,0.00,VWS V14.01,2013-12-21 08:49:00,
2013-12-21 03:50:00,33.4,31.6,29.80,East,89,0.0,0.0,93,0.01,,OVC027,0.03,0.00,VWS V14.01,2013-12-21 08:50:00,
2013-12-21 03:51:00,33.4,31.6,29.80,East,89,0.0,0.0,93,0.01,,OVC027,0.03,0.00,VWS V14.01,2013-12-21 08:51:00,
2013-12-21 03:53:00,33.4,31.6,29.80,East,89,0.0,0.0,93,0.01,,OVC027,0.03,0.00,VWS V14.01,2013-12-21 08:53:00,
2013-12-21 03:54:00,33.4,31.6,29.80,East,89,0.0,0.0,93,0.01,,OVC027,0.03,0.00,VWS V14.01,2013-12-21 08:54:00,
2013-12-21 03:55:00,33.4,31.6,29.80,East,89,0.0,0.0,93,0.01,,OVC027,0.03,0.00,VWS V14.01,2013-12-21 08:55:00,
2013-12-21 03:56:00,33.2,31.4,29.80,East,89,0.0,0.0,93,0.01,,OVC027,0.03,0.00,VWS V14.01,2013-12-21 08:56:00,
2013-12-21 03:58:00,33.2,31.4,29.80,East,89,0.0,0.0,93,0.01,,OVC027,0.03,0.00,VWS V14.01,2013-12-21 08:58:00,
2013-12-21 03:59:00,33.2,31.4,29.80,East,89,0.0,0.0,93,0.01,,OVC027,0.03,0.00,VWS V14.01,2013-12-21 08:59:00,
2013-12-21 04:00:00,33.2,31.4,29.80,East,89,0.0,0.0,93,0.01,,OVC027,0.03,0.00,VWS V14.01,2013-12-21 09:00:00,
2013-12-21 04:01:00,33.2,31.4,29.80,East,89,0.0,0.0,93,0.01,,OVC027,0.03,0.00,VWS V14.01,2013-12-21 09:01:00,
2013-12-21 04:02:00,33.2,31.4,29.80,East,89,0.0,0.0,93,0.01,,OVC027,0.03,0.00,VWS V14.01,2013-12-21 09:02:00,
2013-12-21 04:04:00,33.2,31.4,29.80,East,89,0.0,0.0,93,0.01,,OVC027,0.03,0.00,VWS V14.01,2013-12-21 09:04:00,
2013-12-21 04:06:00,33.2,31.4,29.80,East,89,0.0,0.0,93,0.01,,OVC027,0.03,0.00,VWS V14.01,2013-12-21 09:06:00,
2013-12-21 04:07:00,33.2,31.4,29.80,East,89,0.0,0.0,93,0.01,,OVC027,0.03,0.00,VWS V14.01,2013-12-21 09:07:00,
2013-12-21 04:09:00,33.2,31.4,29.80,East,90,0.0,0.0,93,0.01,,OVC027,0.03,0.00,VWS V14.01,2013-12-21 09:09:00,
2013-12-21 04:10:00,33.2,31.4,29.80,East,90,0.0,0.0,93,0.01,,OVC027,0.03,0.00,VWS V14.01,2013-12-21 09:10:00,
2013-12-21 04:11:00,33.2,31.4,29.80,East,90,0.0,0.0,93,0.01,,OVC027,0.03,0.00,VWS V14.01,2013-12-21 09:11:00,
2013-12-21 04:12:00,33.2,31.4,29.80,East,90,0.0,0.0,93,0.01,,OVC027,0.03,0.00,VWS V14.01,2013-12-21 09:12:00,
2013-12-21 04:15:00,33.2,31.4,29.80,East,90,0.0,0.0,93,0.01,,OVC027,0.03,0.00,VWS V14.01,2013-12-21 09:15:00,
2013-12-21 04:16:00,33.2,31.4,29.80,East,90,0.0,0.0,93,0.01,,OVC027,0.03,0.00,VWS V14.01,2013-12-21 09:16:00,
2013-12-21 04:17:00,33.2,31.4,29.80,East,85,0.0,0.0,93,0.01,,OVC027,0.03,0.00,VWS V14.01,2013-12-21 09:17:00,
2013-12-21 04:20:00,33.2,31.4,29.80,North,10,0.0,0.0,93,0.01,,OVC027,0.03,0.00,VWS V14.01,2013-12-21 09:20:00,
2013-12-21 04:21:00,33.1,31.3,29.80,North,10,0.0,0.0,93,0.01,,OVC027,0.03,0.00,VWS V14.01,2013-12-21 09:21:00,
2013-12-21 04:22:00,33.1,31.3,29.80,North,10,0.0,0.0,93,0.01,,OVC027,0.03,0.00,VWS V14.01,2013-12-21 09:22:00,
2013-12-21 04:23:00,33.1,31.3,29.80,North,10,0.0,0.0,93,0.01,,OVC027,0.03,0.00,VWS V14.01,2013-12-21 09:23:00,
2013-12-21 04:24:00,33.1,31.3,29.80,North,10,0.0,0.0,93,0.01,,OVC027,0.03,0.00,VWS V14.01,2013-12-21 09:24:00,
2013-12-21 04:26:00,33.1,31.6,29.80,North,10,0.0,0.0,94,0.01,,OVC027,0.03,0.00,VWS V14.01,2013-12-21 09:26:00,
2013-12-21 04:28:00,33.1,31.6,29.80,North,10,0.0,0.0,94,0.01,,OVC027,0.03,0.00,VWS V14.01,2013-12-21 09:28:00,
2013-12-21 04:30:00,33.1,31.6,29.80,North,10,0.0,0.0,94,0.01,,OVC027,0.03,0.00,VWS V14.01,2013-12-21 09:30:00,
2013-12-21 04:31:00,33.1,31.6,29.80,North,10,0.0,0.0,94,0.01,,OVC027,0.03,0.00,VWS V14.01,2013-12-21 09:31:00,
2013-12-21 04:32:00,33.1,31.6,29.80,North,10,0.0,0.0,94,0.01,,OVC027,0.03,0.00,VWS V14.01,2013-12-21 09:32:00,
2013-12-21 04:33:00,33.1,31.6,29.81,North,10,0.0,0.0,94,0.01,,OVC027,0.03,0.00,VWS V14.01,2013-12-21 09:33:00,
2013-12-21 04:34:00,33.1,31.6,29.81,North,10,0.0,0.0,94,0.01,,OVC027,0.03,0.00,VWS V14.01,2013-12-21 09:34:00,
2013-12-21 04:37:00,33.1,31.6,29.81,North,10,0.0,2.0,94,0.01,,OVC027,0.03,0.00,VWS V14.01,2013-12-21 09:37:00,
2013-12-21 04:38:00,33.1,31.6,29.81,North,10,0.0,2.0,94,0.01,,OVC027,0.03,0.00,VWS V14.01,2013-12-21 09:38:00,
2013-12-21 04:39:00,33.1,31.6,29.81,North,10,0.0,2.0,94,0.01,,OVC027,0.03,0.00,VWS V14.01,2013-12-21 09:39:00,
2013-12-21 04:42:00,33.1,31.6,29.81,NNE,14,1.0,2.0,94,0.01,,OVC027,0.03,0.00,VWS V14.01,2013-12-21 09:42:00,
2013-12-21 04:43:00,33.1,31.6,29.81,NNE,14,1.0,2.0,94,0.01,,OVC027,0.03,0.00,VWS V14.01,2013-12-21 09:43:00,
2013-12-21 04:44:00,33.1,31.6,29.81,NNE,14,1.0,2.0,94,0.01,,OVC027,0.03,0.00,VWS V14.01,2013-12-21 09:44:00,
2013-12-21 04:45:00,33.1,31.6,29.81,NNE,18,2.0,2.0,94,0.01,,OVC027,0.03,0.00,VWS V14.01,2013-12-21 09:45:00,
2013-12-21 04:48:00,33.1,31.6,29.82,NNE,13,3.0,3.0,94,0.01,,OVC027,0.03,0.00,VWS V14.01,2013-12-21 09:48:00,
2013-12-21 04:49:00,33.1,31.6,29.82,North,11,1.0,3.0,94,0.01,,OVC027,0.03,0.00,VWS V14.01,2013-12-21 09:49:00,
2013-12-21 04:50:00,33.1,31.6,29.82,North,0,2.0,4.0,94,0.01,,OVC027,0.03,0.00,VWS V14.01,2013-12-21 09:50:00,
2013-12-21 04:52:00,33.1,31.6,29.82,North,1,2.0,4.0,94,0.01,,OVC027,0.03,0.00,VWS V14.01,2013-12-21 09:52:00,
2013-12-21 04:53:00,33.1,31.6,29.82,North,1,0.0,4.0,94,0.01,,OVC027,0.03,0.00,VWS V14.01,2013-12-21 09:53:00,
2013-12-21 04:54:00,33.1,31.6,29.82,North,1,1.0,4.0,94,0.01,,OVC027,0.03,0.00,VWS V14.01,2013-12-21 09:54:00,
2013-12-21 04:55:00,33.1,31.6,29.82,NNE,14,2.0,4.0,94,0.01,,OVC027,0.03,0.00,VWS V14.01,2013-12-21 09:55:00,
2013-12-21 04:58:00,33.1,31.6,29.82,NNE,14,1.0,4.0,94,0.01,,OVC027,0.03,0.00,VWS V14.01,2013-12-21 09:58:00,
2013-12-21 04:59:00,33.1,31.6,29.82,NNE,16,1.0,4.0,94,0.01,,OVC027,0.03,0.00,VWS V14.01,2013-12-21 09:59:00,
2013-12-21 05:00:00,33.1,31.6,29.82,NNE,16,0.0,4.0,94,0.01,,OVC027,0.03,0.00,VWS V14.01,2013-12-21 10:00:00,
2013-12-21 05:03:00,33.1,31.6,29.81,NNE,16,0.0,1.0,94,0.00,,OVC036,0.03,0.00,VWS V14.01,2013-12-21 10:03:00,
2013-12-21 05:04:00,33.1,31.6,29.81,NNE,16,0.0,1.0,94,0.00,,OVC036,0.03,0.00,VWS V14.01,2013-12-21 10:04:00,
2013-12-21 05:05:00,33.1,31.6,29.81,NNE,16,0.0,1.0,94,0.00,,OVC036,0.03,0.00,VWS V14.01,2013-12-21 10:05:00,
2013-12-21 05:06:00,33.1,31.6,29.81,NNE,16,0.0,1.0,94,0.00,,OVC036,0.03,0.00,VWS V14.01,2013-12-21 10:06:00,
2013-12-21 05:08:00,33.1,31.6,29.81,NNE,16,1.0,1.0,94,0.00,,OVC036,0.03,0.00,VWS V14.01,2013-12-21 10:08:00,
2013-12-21 05:09:00,33.1,31.6,29.81,NNE,16,0.0,1.0,94,0.00,,OVC036,0.03,0.00,VWS V14.01,2013-12-21 10:09:00,
2013-12-21 05:10:00,33.1,31.6,29.81,NNE,16,0.0,1.0,94,0.00,,OVC036,0.03,0.00,VWS V14.01,2013-12-21 10:10:00,
2013-12-21 05:11:00,33.1,31.6,29.81,NNE,16,0.0,1.0,94,0.00,,OVC036,0.03,0.00,VWS V14.01,2013-12-21 10:11:00,
2013-12-21 05:14:00,32.9,31.4,29.81,ESE,120,1.0,2.0,94,0.00,,OVC036,0.03,0.00,VWS V14.01,2013-12-21 10:14:00,
2013-12-21 05:15:00,32.9,31.4,29.81,ESE,120,2.0,2.0,94,0.00,,OVC036,0.03,0.00,VWS V14.01,2013-12-21 10:15:00,
2013-12-21 05:16:00,32.9,31.4,29.81,ESE,120,1.0,2.0,94,0.00,,OVC036,0.03,0.00,VWS V14.01,2013-12-21 10:16:00,
2013-12-21 05:17:00,32.9,31.4,29.81,ESE,120,1.0,2.0,94,0.00,,OVC036,0.03,0.00,VWS V14.01,2013-12-21 10:17:00,
2013-12-21 05:19:00,32.9,31.4,29.79,ESE,120,1.0,2.0,94,0.00,,OVC036,0.03,0.00,VWS V14.01,2013-12-21 10:19:00,
2013-12-21 05:21:00,32.9,31.4,29.79,SSE,151,1.0,3.0,94,0.00,,OVC036,0.03,0.00,VWS V14.01,2013-12-21 10:21:00,
2013-12-21 05:22:00,32.9,31.4,29.79,SSE,151,1.0,3.0,94,0.00,,OVC036,0.03,0.00,VWS V14.01,2013-12-21 10:22:00,
2013-12-21 05:24:00,32.9,31.4,29.79,ENE,61,2.0,3.0,94,0.00,,OVC036,0.03,0.00,VWS V14.01,2013-12-21 10:24:00,
2013-12-21 05:26:00,32.9,31.4,29.79,NNE,21,1.0,3.0,94,0.00,,OVC036,0.03,0.00,VWS V14.01,2013-12-21 10:26:00,
2013-12-21 05:27:00,32.9,31.4,29.79,NNE,21,0.0,3.0,94,0.00,,OVC036,0.03,0.00,VWS V14.01,2013-12-21 10:27:00,
2013-12-21 05:28:00,32.9,31.6,29.79,NNE,21,0.0,3.0,95,0.00,,OVC036,0.03,0.00,VWS V14.01,2013-12-21 10:28:00,
2013-12-21 05:29:00,32.9,31.6,29.79,NNE,21,0.0,3.0,95,0.00,,OVC036,0.03,0.00,VWS V14.01,2013-12-21 10:29:00,
2013-12-21 05:30:00,32.9,31.6,29.80,NNE,21,0.0,3.0,95,0.00,,,0.03,0.00,VWS V15.00,2013-12-21 10:30:00,
2013-12-21 05:31:00,32.9,31.6,29.79,NNE,21,0.0,3.0,95,0.00,,OVC036,0.03,0.00,VWS V14.01,2013-12-21 10:31:00,
2013-12-21 05:32:00,32.9,31.6,29.79,NNE,21,0.0,3.0,95,0.00,,OVC036,0.03,0.00,VWS V14.01,2013-12-21 10:32:00,
2013-12-21 05:33:00,32.9,31.6,29.80,NNE,21,0.0,0.0,95,0.00,,OVC036,0.03,0.00,VWS V14.01,2013-12-21 10:33:00,
2013-12-21 05:34:00,32.9,31.6,29.80,NNE,21,0.0,0.0,95,0.00,,OVC036,0.03,0.00,VWS V14.01,2013-12-21 10:34:00,
2013-12-21 05:36:00,32.9,31.6,29.80,NNE,21,0.0,0.0,95,0.00,,OVC036,0.03,0.00,VWS V14.01,2013-12-21 10:36:00,
2013-12-21 05:37:00,32.9,31.6,29.80,NNE,21,0.0,0.0,95,0.00,,OVC036,0.03,0.00,VWS V14.01,2013-12-21 10:37:00,
2013-12-21 05:38:00,32.9,31.6,29.80,NNE,21,0.0,0.0,95,0.00,,OVC036,0.03,0.00,VWS V14.01,2013-12-21 10:38:00,
2013-12-21 05:39:00,32.9,31.6,29.80,NNE,21,0.0,0.0,95,0.00,,OVC036,0.03,0.00,VWS V14.01,2013-12-21 10:39:00,
2013-12-21 05:40:00,32.8,31.5,29.80,NNE,21,0.0,0.0,95,0.00,,OVC036,0.03,0.00,VWS V14.01,2013-12-21 10:40:00,
2013-12-21 05:41:00,32.8,31.5,29.80,NNE,21,0.0,0.0,95,0.00,,OVC036,0.03,0.00,VWS V14.01,2013-12-21 10:41:00,
2013-12-21 05:42:00,32.8,31.5,29.80,NNE,21,0.0,0.0,95,0.00,,OVC036,0.03,0.00,VWS V14.01,2013-12-21 10:42:00,
2013-12-21 05:43:00,32.8,31.5,29.80,NNE,21,0.0,0.0,95,0.00,,OVC036,0.03,0.00,VWS V14.01,2013-12-21 10:43:00,
2013-12-21 05:44:00,32.8,31.5,29.80,NNE,21,0.0,0.0,95,0.00,,OVC036,0.03,0.00,VWS V14.01,2013-12-21 10:44:00,
2013-12-21 05:45:00,32.8,31.5,29.80,NNE,21,0.0,0.0,95,0.00,,OVC036,0.03,0.00,VWS V14.01,2013-12-21 10:45:00,
2013-12-21 05:46:00,32.8,31.5,29.80,NNE,21,0.0,0.0,95,0.00,,OVC036,0.03,0.00,VWS V14.01,2013-12-21 10:46:00,
2013-12-21 05:48:00,32.8,31.5,29.81,NNE,21,0.0,0.0,95,0.00,,OVC036,0.03,0.00,VWS V14.01,2013-12-21 10:48:00,
2013-12-21 05:50:00,32.8,31.5,29.81,NNE,21,0.0,0.0,95,0.00,,OVC036,0.03,0.00,VWS V14.01,2013-12-21 10:50:00,
2013-12-21 05:51:00,32.8,31.5,29.81,NNE,21,0.0,0.0,95,0.00,,OVC036,0.03,0.00,VWS V14.01,2013-12-21 10:51:00,
2013-12-21 05:53:00,32.7,31.4,29.81,NNE,21,0.0,0.0,95,0.00,,OVC036,0.03,0.00,VWS V14.01,2013-12-21 10:53:00,
2013-12-21 05:54:00,32.7,31.4,29.81,NNE,21,0.0,0.0,95,0.00,,OVC036,0.03,0.00,VWS V14.01,2013-12-21 10:54:00,
2013-12-21 05:55:00,32.7,31.4,29.81,NNE,21,0.0,0.0,95,0.00,,OVC036,0.03,0.00,VWS V14.01,2013-12-21 10:55:00,
2013-12-21 05:56:00,32.7,31.4,29.81,NNE,21,0.0,0.0,95,0.00,,OVC036,0.03,0.00,VWS V14.01,2013-12-21 10:56:00,
2013-12-21 05:57:00,32.7,31.4,29.81,NNE,21,0.0,0.0,95,0.00,,OVC036,0.03,0.00,VWS V14.01,2013-12-21 10:57:00,
2013-12-21 05:59:00,32.7,31.4,29.81,NNE,21,0.0,0.0,95,0.00,,OVC036,0.03,0.00,VWS V14.01,2013-12-21 10:59:00,
2013-12-21 06:00:00,32.7,31.4,29.81,NE,42,1.0,1.0,95,0.00,,BKN029,0.03,0.00,VWS V14.01,2013-12-21 11:00:00,
2013-12-21 06:01:00,32.7,31.4,29.81,NE,42,1.0,1.0,95,0.00,,BKN029,0.03,0.00,VWS V14.01,2013-12-21 11:01:00,
2013-12-21 06:02:00,32.7,31.4,29.81,NE,44,1.0,1.0,95,0.00,,BKN029,0.03,0.00,VWS V14.01,2013-12-21 11:02:00,
2013-12-21 06:04:00,32.7,31.4,29.80,ENE,68,1.0,2.0,95,0.00,,BKN029,0.03,0.00,VWS V14.01,2013-12-21 11:04:00,
2013-12-21 06:05:00,32.7,31.4,29.80,ENE,68,2.0,2.0,95,0.00,,BKN029,0.03,0.00,VWS V14.01,2013-12-21 11:05:00,
2013-12-21 06:06:00,32.7,31.4,29.80,ENE,68,2.0,2.0,95,0.00,,BKN029,0.03,0.00,VWS V14.01,2013-12-21 11:06:00,
2013-12-21 06:07:00,32.7,31.4,29.80,ENE,68,2.0,2.0,95,0.00,,BKN029,0.03,0.00,VWS V14.01,2013-12-21 11:07:00,
2013-12-21 06:09:00,32.7,31.4,29.80,ENE,68,2.0,2.0,95,0.00,,BKN029,0.03,0.00,VWS V14.01,2013-12-21 11:09:00,
2013-12-21 06:11:00,32.7,31.4,29.80,ENE,68,1.0,2.0,95,0.00,,BKN029,0.03,0.00,VWS V14.01,2013-12-21 11:11:00,
2013-12-21 06:12:00,32.7,31.4,29.80,ENE,64,0.0,2.0,95,0.00,,BKN029,0.03,0.00,VWS V14.01,2013-12-21 11:12:00,
2013-12-21 06:13:00,32.7,31.4,29.80,ENE,68,1.0,2.0,95,0.00,,BKN029,0.03,0.00,VWS V14.01,2013-12-21 11:13:00,
2013-12-21 06:14:00,32.7,31.4,29.80,ENE,68,1.0,2.0,95,0.00,,BKN029,0.03,0.00,VWS V14.01,2013-12-21 11:14:00,
2013-12-21 06:16:00,32.7,31.4,29.80,ENE,68,0.0,2.0,95,0.00,,BKN029,0.03,0.00,VWS V14.01,2013-12-21 11:16:00,
2013-12-21 06:17:00,32.7,31.4,29.79,ENE,68,0.0,2.0,95,0.00,,BKN029,0.03,0.00,VWS V14.01,2013-12-21 11:17:00,
2013-12-21 06:18:00,32.7,31.4,29.79,ENE,68,0.0,2.0,95,0.00,,BKN029,0.03,0.00,VWS V14.01,2013-12-21 11:18:00,
2013-12-21 06:20:00,32.7,31.4,29.79,ESE,112,1.0,2.0,95,0.00,,BKN029,0.03,0.00,VWS V14.01,2013-12-21 11:20:00,
2013-12-21 06:22:00,32.7,31.4,29.79,ESE,112,0.0,2.0,95,0.00,,BKN029,0.03,0.00,VWS V14.01,2013-12-21 11:22:00,
2013-12-21 06:23:00,32.7,31.4,29.79,ESE,112,1.0,2.0,95,0.00,,BKN029,0.03,0.00,VWS V14.01,2013-12-21 11:23:00,
2013-12-21 06:24:00,32.7,31.4,29.79,ESE,112,0.0,2.0,95,0.00,,BKN029,0.03,0.00,VWS V14.01,2013-12-21 11:24:00,
2013-12-21 06:26:00,32.7,31.4,29.79,ESE,112,0.0,2.0,95,0.00,,BKN029,0.03,0.00,VWS V14.01,2013-12-21 11:26:00,
2013-12-21 06:28:00,32.7,31.4,29.79,East,95,0.0,2.0,95,0.00,,BKN029,0.03,0.00,VWS V14.01,2013-12-21 11:28:00,
2013-12-21 06:29:00,32.7,31.4,29.79,East,95,0.0,2.0,95,0.00,,BKN029,0.03,0.00,VWS V14.01,2013-12-21 11:29:00,
2013-12-21 06:30:00,32.7,31.4,29.79,East,95,0.0,2.0,95,0.00,,BKN029,0.03,0.00,VWS V14.01,2013-12-21 11:30:00,
2013-12-21 06:31:00,32.7,31.4,29.79,East,95,1.0,2.0,95,0.00,,BKN029,0.03,0.00,VWS V14.01,2013-12-21 11:31:00,
2013-12-21 06:33:00,32.7,31.4,29.80,East,95,0.0,2.0,95,0.00,,BKN029,0.03,0.00,VWS V14.01,2013-12-21 11:33:00,
2013-12-21 06:34:00,32.7,31.4,29.80,East,95,0.0,1.0,95,0.00,,BKN029,0.03,0.00,VWS V14.01,2013-12-21 11:34:00,
2013-12-21 06:35:00,32.7,31.4,29.80,East,95,0.0,1.0,95,0.00,,BKN029,0.03,0.00,VWS V14.01,2013-12-21 11:35:00,
2013-12-21 06:37:00,32.7,31.4,29.80,East,95,2.0,2.0,95,0.00,,BKN029,0.03,0.00,VWS V14.01,2013-12-21 11:37:00,
2013-12-21 06:38:00,32.7,31.4,29.80,East,92,2.0,2.0,95,0.00,,BKN029,0.03,0.00,VWS V14.01,2013-12-21 11:38:00,
2013-12-21 06:40:00,32.7,31.4,29.80,East,92,1.0,2.0,95,0.00,,BKN029,0.03,0.00,VWS V14.01,2013-12-21 11:40:00,
2013-12-21 06:42:00,32.7,31.4,29.80,East,92,0.0,2.0,95,0.00,,BKN029,0.03,0.00,VWS V14.01,2013-12-21 11:42:00,
2013-12-21 06:43:00,32.7,31.4,29.80,East,92,0.0,2.0,95,0.00,,BKN029,0.03,0.00,VWS V14.01,2013-12-21 11:43:00,
2013-12-21 06:44:00,32.7,31.4,29.80,East,92,0.0,2.0,95,0.00,,BKN029,0.03,0.00,VWS V14.01,2013-12-21 11:44:00,
2013-12-21 06:45:00,32.7,31.4,29.80,East,92,0.0,2.0,95,0.00,,BKN029,0.03,0.00,VWS V14.01,2013-12-21 11:45:00,
2013-12-21 06:47:00,32.7,31.4,29.81,East,92,0.0,2.0,95,0.00,,BKN029,0.03,0.00,VWS V14.01,2013-12-21 11:47:00,
2013-12-21 06:49:00,32.7,31.4,29.81,East,92,1.0,2.0,95,0.00,,BKN029,0.03,0.00,VWS V14.01,2013-12-21 11:49:00,
2013-12-21 06:50:00,32.7,31.4,29.81,East,92,0.0,2.0,95,0.00,,BKN029,0.03,0.00,VWS V14.01,2013-12-21 11:50:00,
2013-12-21 06:51:00,32.7,31.4,29.81,East,92,0.0,2.0,95,0.00,,BKN029,0.03,0.00,VWS V14.01,2013-12-21 11:51:00,
2013-12-21 06:52:00,32.7,31.4,29.81,East,92,0.0,2.0,95,0.00,,BKN029,0.03,0.00,VWS V14.01,2013-12-21 11:52:00,
2013-12-21 06:53:00,32.7,31.4,29.81,East,92,0.0,2.0,95,0.00,,BKN029,0.03,0.00,VWS V14.01,2013-12-21 11:53:00,
2013-12-21 06:54:00,32.7,31.4,29.81,East,92,1.0,2.0,95,0.00,,BKN029,0.03,0.00,VWS V14.01,2013-12-21 11:54:00,
2013-12-21 06:55:00,32.7,31.4,29.81,East,92,1.0,2.0,95,0.00,,BKN029,0.03,0.00,VWS V14.01,2013-12-21 11:55:00,
2013-12-21 06:56:00,32.7,31.4,29.81,East,92,1.0,2.0,95,0.00,,BKN029,0.03,0.00,VWS V14.01,2013-12-21 11:56:00,
2013-12-21 06:57:00,32.7,31.4,29.81,East,92,1.0,2.0,95,0.00,,BKN029,0.03,0.00,VWS V14.01,2013-12-21 11:57:00,
2013-12-21 06:58:00,32.7,31.4,29.81,East,92,0.0,2.0,95,0.00,,BKN029,0.03,0.00,VWS V14.01,2013-12-21 11:58:00,
2013-12-21 06:59:00,32.7,31.4,29.81,East,92,1.0,2.0,95,0.00,,BKN029,0.03,0.00,VWS V14.01,2013-12-21 11:59:00,
2013-12-21 07:00:00,32.7,31.4,29.82,ENE,59,1.0,2.0,95,0.00,,,0.03,0.00,VWS V15.00,2013-12-21 12:00:00,
2013-12-21 07:01:00,32.7,31.4,29.81,East,92,1.0,2.0,95,0.00,,OVC031,0.03,0.00,VWS V14.01,2013-12-21 12:01:00,
2013-12-21 07:02:00,32.7,31.4,29.82,ENE,59,2.0,2.0,95,0.00,,OVC031,0.03,0.00,VWS V14.01,2013-12-21 12:02:00,
2013-12-21 07:03:00,32.7,31.4,29.82,ENE,59,1.0,2.0,95,0.00,,OVC031,0.03,0.00,VWS V14.01,2013-12-21 12:03:00,
2013-12-21 07:04:00,32.7,31.4,29.82,ENE,59,1.0,1.0,95,0.00,,OVC031,0.03,0.00,VWS V14.01,2013-12-21 12:04:00,
2013-12-21 07:06:00,32.7,31.4,29.82,ENE,59,1.0,1.0,95,0.00,,OVC031,0.03,0.00,VWS V14.01,2013-12-21 12:06:00,
2013-12-21 07:08:00,32.7,31.4,29.82,ENE,59,1.0,2.0,95,0.00,,OVC031,0.03,0.00,VWS V14.01,2013-12-21 12:08:00,
2013-12-21 07:09:00,32.7,31.4,29.82,ENE,59,0.0,2.0,95,0.00,,OVC031,0.03,0.00,VWS V14.01,2013-12-21 12:09:00,
2013-12-21 07:10:00,32.7,31.4,29.82,ENE,59,0.0,2.0,95,0.00,,OVC031,0.03,0.00,VWS V14.01,2013-12-21 12:10:00,
2013-12-21 07:13:00,32.7,31.4,29.82,ENE,59,2.0,2.0,95,0.00,,OVC031,0.03,0.00,VWS V14.01,2013-12-21 12:13:00,
2013-12-21 07:15:00,32.7,31.4,29.82,ENE,61,1.0,2.0,95,0.00,,OVC031,0.03,0.00,VWS V14.01,2013-12-21 12:15:00,
2013-12-21 07:18:00,32.7,31.4,29.81,ENE,61,1.0,2.0,95,0.00,,OVC031,0.03,0.00,VWS V14.01,2013-12-21 12:18:00,
2013-12-21 07:20:00,32.7,31.4,29.81,ENE,61,1.0,2.0,95,0.00,,OVC031,0.03,0.00,VWS V14.01,2013-12-21 12:20:00,
2013-12-21 07:23:00,32.8,31.5,29.81,ENE,61,1.0,2.0,95,0.00,,OVC031,0.03,0.00,VWS V14.01,2013-12-21 12:23:00,
2013-12-21 07:25:00,32.8,31.5,29.81,ENE,61,1.0,2.0,95,0.00,,OVC031,0.03,0.00,VWS V14.01,2013-12-21 12:25:00,
2013-12-21 07:26:00,32.8,31.5,29.81,ENE,61,0.0,2.0,95,0.00,,OVC031,0.03,0.00,VWS V14.01,2013-12-21 12:26:00,
2013-12-21 07:27:00,32.9,31.6,29.81,ENE,61,0.0,2.0,95,0.00,,OVC031,0.03,0.00,VWS V14.01,2013-12-21 12:27:00,
2013-12-21 07:28:00,32.9,31.6,29.81,ENE,61,0.0,2.0,95,0.00,,OVC031,0.03,0.00,VWS V14.01,2013-12-21 12:28:00,
2013-12-21 07:29:00,32.9,31.6,29.81,ENE,61,0.0,2.0,95,0.00,,OVC031,0.03,0.00,VWS V14.01,2013-12-21 12:29:00,
2013-12-21 07:30:00,32.9,31.6,29.81,ENE,61,0.0,2.0,95,0.00,,OVC031,0.03,0.00,VWS V14.01,2013-12-21 12:30:00,
2013-12-21 07:31:00,32.9,31.6,29.81,ENE,61,0.0,2.0,95,0.00,,OVC031,0.03,0.00,VWS V14.01,2013-12-21 12:31:00,
2013-12-21 07:32:00,32.9,31.6,29.81,ENE,61,0.0,2.0,95,0.00,,OVC031,0.03,7.00,VWS V14.01,2013-12-21 12:32:00,
2013-12-21 07:34:00,32.9,31.6,29.80,ENE,61,1.0,1.0,95,0.00,,OVC031,0.03,7.00,VWS V14.01,2013-12-21 12:34:00,
2013-12-21 07:36:00,32.9,31.6,29.80,ENE,61,0.0,2.0,95,0.00,,OVC031,0.03,7.00,VWS V14.01,2013-12-21 12:36:00,
2013-12-21 07:37:00,32.9,31.6,29.80,ENE,61,0.0,2.0,95,0.00,,OVC031,0.03,11.00,VWS V14.01,2013-12-21 12:37:00,
2013-12-21 07:39:00,32.9,31.6,29.80,ENE,61,0.0,2.0,95,0.00,,OVC031,0.03,11.00,VWS V14.01,2013-12-21 12:39:00,
2013-12-21 07:41:00,32.9,31.6,29.80,ENE,61,0.0,2.0,95,0.00,,OVC031,0.03,9.00,VWS V14.01,2013-12-21 12:41:00,
2013-12-21 07:42:00,32.9,31.6,29.80,ENE,61,0.0,2.0,95,0.00,,OVC031,0.03,9.00,VWS V14.01,2013-12-21 12:42:00,
2013-12-21 07:43:00,32.9,31.6,29.80,ENE,61,0.0,2.0,95,0.00,,OVC031,0.03,9.00,VWS V14.01,2013-12-21 12:43:00,
2013-12-21 07:44:00,32.9,31.6,29.80,NE,56,1.0,2.0,95,0.00,,OVC031,0.03,11.00,VWS V14.01,2013-12-21 12:44:00,
2013-12-21 07:47:00,32.9,31.9,29.80,ENE,62,0.0,2.0,96,0.00,,OVC031,0.03,11.00,VWS V14.01,2013-12-21 12:47:00,
2013-12-21 07:48:00,32.9,31.9,29.81,ENE,62,1.0,2.0,96,0.00,,OVC031,0.03,11.00,VWS V14.01,2013-12-21 12:48:00,
2013-12-21 07:49:00,32.9,31.9,29.81,ENE,62,1.0,2.0,96,0.00,,OVC031,0.03,11.00,VWS V14.01,2013-12-21 12:49:00,
2013-12-21 07:51:00,33.1,32.1,29.81,ENE,62,1.0,2.0,96,0.00,,OVC031,0.03,11.00,VWS V14.01,2013-12-21 12:51:00,
2013-12-21 07:52:00,33.1,32.1,29.81,ENE,62,1.0,2.0,96,0.00,,OVC031,0.03,11.00,VWS V14.01,2013-12-21 12:52:00,
2013-12-21 07:54:00,33.1,32.1,29.81,ENE,62,1.0,2.0,96,0.00,,OVC031,0.03,14.00,VWS V14.01,2013-12-21 12:54:00,
2013-12-21 07:55:00,33.1,32.1,29.81,ENE,62,0.0,2.0,96,0.00,,OVC031,0.03,14.00,VWS V14.01,2013-12-21 12:55:00,
2013-12-21 07:57:00,33.1,32.1,29.81,ENE,62,0.0,2.0,96,0.00,,OVC031,0.03,18.00,VWS V14.01,2013-12-21 12:57:00,
2013-12-21 07:58:00,33.1,32.1,29.81,ENE,62,0.0,2.0,96,0.00,,OVC031,0.03,18.00,VWS V14.01,2013-12-21 12:58:00,
2013-12-21 07:59:00,33.1,32.1,29.81,ENE,62,1.0,2.0,96,0.00,,OVC031,0.03,18.00,VWS V14.01,2013-12-21 12:59:00,
2013-12-21 08:00:00,33.1,32.1,29.81,ENE,62,0.0,2.0,96,0.00,,OVC031,0.03,18.00,VWS V14.01,2013-12-21 13:00:00,
2013-12-21 08:03:00,33.1,32.1,29.81,ENE,69,0.0,2.0,96,0.00,,FEW029,0.03,16.00,VWS V14.01,2013-12-21 13:03:00,
2013-12-21 08:04:00,33.1,32.1,29.81,ENE,69,1.0,1.0,96,0.00,,FEW029,0.03,16.00,VWS V14.01,2013-12-21 13:04:00,
2013-12-21 08:05:00,33.2,32.2,29.81,ENE,69,0.0,1.0,96,0.00,,FEW029,0.03,18.00,VWS V14.01,2013-12-21 13:05:00,
2013-12-21 08:08:00,33.2,32.2,29.81,SSE,154,1.0,2.0,96,0.00,,FEW029,0.03,18.00,VWS V14.01,2013-12-21 13:08:00,
2013-12-21 08:09:00,33.2,32.2,29.81,SSE,147,1.0,2.0,96,0.00,,FEW029,0.03,18.00,VWS V14.01,2013-12-21 13:09:00,
2013-12-21 08:10:00,33.2,32.2,29.81,SSE,147,0.0,2.0,96,0.00,,FEW029,0.03,18.00,VWS V14.01,2013-12-21 13:10:00,
2013-12-21 08:11:00,33.2,32.2,29.81,SSE,147,0.0,2.0,96,0.00,,FEW029,0.03,18.00,VWS V14.01,2013-12-21 13:11:00,
2013-12-21 08:13:00,33.2,32.2,29.81,SSE,147,0.0,2.0,96,0.00,,FEW029,0.03,25.00,VWS V14.01,2013-12-21 13:13:00,
2013-12-21 08:14:00,33.2,32.2,29.81,SSE,147,0.0,2.0,96,0.00,,FEW029,0.03,25.00,VWS V14.01,2013-12-21 13:14:00,
2013-12-21 08:16:00,33.4,32.4,29.81,SSE,147,0.0,2.0,96,0.00,,FEW029,0.03,25.00,VWS V14.01,2013-12-21 13:16:00,
2013-12-21 08:18:00,33.4,32.4,29.80,SSE,147,1.0,2.0,96,0.00,,FEW029,0.03,26.00,VWS V14.01,2013-12-21 13:18:00,
2013-12-21 08:20:00,33.4,32.4,29.80,SSE,147,2.0,2.0,96,0.00,,FEW029,0.03,26.00,VWS V14.01,2013-12-21 13:20:00,
2013-12-21 08:21:00,33.5,32.5,29.80,SSE,147,2.0,2.0,96,0.00,,FEW029,0.03,26.00,VWS V14.01,2013-12-21 13:21:00,
2013-12-21 08:23:00,33.5,32.5,29.80,SSE,147,1.0,2.0,96,0.00,,FEW029,0.03,25.00,VWS V14.01,2013-12-21 13:23:00,
2013-12-21 08:24:00,33.5,32.5,29.80,SSE,147,0.0,2.0,96,0.00,,FEW029,0.03,25.00,VWS V14.01,2013-12-21 13:24:00,
2013-12-21 08:26:00,33.5,32.5,29.80,SSW,205,2.0,3.0,96,0.00,,FEW029,0.03,35.00,VWS V14.01,2013-12-21 13:26:00,
2013-12-21 08:28:00,33.7,32.7,29.80,SSW,203,2.0,5.0,96,0.00,,FEW029,0.03,35.00,VWS V14.01,2013-12-21 13:28:00,
2013-12-21 08:29:00,33.7,32.7,29.80,SSW,192,2.0,5.0,96,0.00,,FEW029,0.03,35.00,VWS V14.01,2013-12-21 13:29:00,
2013-12-21 08:30:00,33.7,32.7,29.82,SW,230,2.0,5.0,96,0.00,,,0.03,42.00,VWS V15.00,2013-12-21 13:30:00,
2013-12-21 08:31:00,33.7,32.7,29.80,SSW,192,0.0,5.0,96,0.00,,FEW029,0.03,42.00,VWS V14.01,2013-12-21 13:31:00,
2013-12-21 08:32:00,33.7,32.7,29.80,SW,216,2.0,5.0,96,0.00,,FEW029,0.03,42.00,VWS V14.01,2013-12-21 13:32:00,
2013-12-21 08:33:00,33.7,32.7,29.82,SW,226,2.0,2.0,96,0.00,,FEW029,0.03,42.00,VWS V14.01,2013-12-21 13:33:00,
2013-12-21 08:34:00,33.7,32.7,29.82,South,176,2.0,2.0,96,0.00,,FEW029,0.03,42.00,VWS V14.01,2013-12-21 13:34:00,
2013-12-21 08:35:00,33.7,32.7,29.82,SSW,195,1.0,2.0,96,0.00,,FEW029,0.03,49.00,VWS V14.01,2013-12-21 13:35:00,
2013-12-21 08:36:00,33.8,32.8,29.82,SSW,195,1.0,2.0,96,0.00,,FEW029,0.03,49.00,VWS V14.01,2013-12-21 13:36:00,
2013-12-21 08:37:00,33.8,32.8,29.82,South,185,2.0,2.0,96,0.00,,FEW029,0.03,49.00,VWS V14.01,2013-12-21 13:37:00,
2013-12-21 08:38:00,33.8,32.8,29.82,SSW,206,3.0,3.0,96,0.00,,FEW029,0.03,49.00,VWS V14.01,2013-12-21 13:38:00,
2013-12-21 08:40:00,33.8,32.8,29.82,South,191,1.0,3.0,96,0.00,,FEW029,0.03,70.00,VWS V14.01,2013-12-21 13:40:00,
2013-12-21 08:41:00,33.8,32.8,29.82,South,191,1.0,3.0,96,0.00,,FEW029,0.03,74.00,VWS V14.01,2013-12-21 13:41:00,
2013-12-21 08:42:00,34.0,33.0,29.82,SSW,209,2.0,3.0,96,0.00,,FEW029,0.03,77.00,VWS V14.01,2013-12-21 13:42:00,
2013-12-21 08:43:00,34.0,33.0,29.82,SSW,209,1.0,3.0,96,0.00,,FEW029,0.03,81.00,VWS V14.01,2013-12-21 13:43:00,
2013-12-21 08:45:00,34.0,33.0,29.82,SW,220,1.0,5.0,96,0.00,,FEW029,0.03,88.00,VWS V14.01,2013-12-21 13:45:00,
2013-12-21 08:47:00,34.1,33.1,29.82,SSW,193,0.0,5.0,96,0.00,,FEW029,0.03,91.00,VWS V14.01,2013-12-21 13:47:00,
2013-12-21 08:48:00,34.1,33.1,29.82,South,184,1.0,5.0,96,0.00,,FEW029,0.03,90.00,VWS V14.01,2013-12-21 13:48:00,
2013-12-21 08:49:00,34.1,33.1,29.82,SSW,206,1.0,5.0,96,0.00,,FEW029,0.03,88.00,VWS V14.01,2013-12-21 13:49:00,
2013-12-21 08:51:00,34.1,33.1,29.82,South,179,3.0,5.0,96,0.00,,FEW029,0.03,76.00,VWS V14.01,2013-12-21 13:51:00,
2013-12-21 08:53:00,34.3,33.3,29.82,South,181,2.0,5.0,96,0.01,,FEW029,0.04,69.00,VWS V14.01,2013-12-21 13:53:00,
2013-12-21 08:54:00,34.4,33.4,29.82,SSW,198,2.0,5.0,96,0.01,,FEW029,0.04,69.00,VWS V14.01,2013-12-21 13:54:00,
2013-12-21 08:55:00,34.4,33.4,29.82,South,178,2.0,5.0,96,0.01,,FEW029,0.04,69.00,VWS V14.01,2013-12-21 13:55:00,
2013-12-21 08:56:00,34.4,33.4,29.82,SSE,168,3.0,5.0,96,0.01,,FEW029,0.04,67.00,VWS V14.01,2013-12-21 13:56:00,
2013-12-21 08:57:00,34.4,33.4,29.82,SSW,199,1.0,5.0,96,0.01,,FEW029,0.04,67.00,VWS V14.01,2013-12-21 13:57:00,
2013-12-21 08:59:00,34.6,33.6,29.82,SSW,199,1.0,5.0,96,0.01,,FEW029,0.04,65.00,VWS V14.01,2013-12-21 13:59:00,
2013-12-21 09:00:00,34.6,33.6,29.82,South,179,0.0,5.0,96,0.01,,FEW029,0.04,63.00,VWS V14.01,2013-12-21 14:00:00,
2013-12-21 09:01:00,34.6,33.6,29.82,SSW,196,1.0,5.0,96,0.01,,SCT120,0.04,63.00,VWS V14.01,2013-12-21 14:01:00,
2013-12-21 09:04:00,34.6,33.6,29.82,WSW,246,1.0,2.0,96,0.01,,SCT120,0.04,72.00,VWS V14.01,2013-12-21 14:04:00,
2013-12-21 09:05:00,34.6,33.6,29.82,WSW,246,1.0,2.0,96,0.01,,SCT120,0.04,72.00,VWS V14.01,2013-12-21 14:05:00,
2013-12-21 09:08:00,34.7,33.7,29.82,WSW,240,1.0,2.0,96,0.01,,SCT120,0.04,81.00,VWS V14.01,2013-12-21 14:08:00,
2013-12-21 09:10:00,34.7,33.7,29.82,WSW,240,0.0,2.0,96,0.01,,SCT120,0.04,84.00,VWS V14.01,2013-12-21 14:10:00,
2013-12-21 09:11:00,34.9,33.9,29.82,WSW,240,0.0,2.0,96,0.01,,SCT120,0.04,86.00,VWS V14.01,2013-12-21 14:11:00,
2013-12-21 09:13:00,34.9,33.9,29.82,WSW,240,0.0,2.0,96,0.01,,SCT120,0.04,93.00,VWS V14.01,2013-12-21 14:13:00,
2013-12-21 09:15:00,35.0,34.0,29.82,WSW,240,0.0,2.0,96,0.01,,SCT120,0.04,97.00,VWS V14.01,2013-12-21 14:15:00,
2013-12-21 09:17:00,35.0,34.0,29.82,WSW,240,0.0,2.0,96,0.01,,SCT120,0.04,91.00,VWS V14.01,2013-12-21 14:17:00,
2013-12-21 09:18:00,35.2,34.2,29.82,WSW,240,0.0,2.0,96,0.01,,SCT120,0.04,88.00,VWS V14.01,2013-12-21 14:18:00,
2013-12-21 09:20:00,35.2,34.2,29.82,SW,226,2.0,3.0,96,0.01,,SCT120,0.04,77.00,VWS V14.01,2013-12-21 14:20:00,
2013-12-21 09:21:00,35.3,34.3,29.82,SW,226,1.0,3.0,96,0.01,,SCT120,0.04,63.00,VWS V14.01,2013-12-21 14:21:00,
2013-12-21 09:22:00,35.3,34.3,29.82,SW,226,1.0,3.0,96,0.01,,SCT120,0.04,55.00,VWS V14.01,2013-12-21 14:22:00,
2013-12-21 09:23:00,35.3,34.3,29.82,SW,226,1.0,3.0,96,0.01,,SCT120,0.04,51.00,VWS V14.01,2013-12-21 14:23:00,
2013-12-21 09:25:00,35.3,34.3,29.82,SSW,196,1.0,3.0,96,0.01,,SCT120,0.04,49.00,VWS V14.01,2013-12-21 14:25:00,
2013-12-21 09:27:00,35.5,34.5,29.82,SSW,210,1.0,3.0,96,0.01,,SCT120,0.04,49.00,VWS V14.01,2013-12-21 14:27:00,
2013-12-21 09:28:00,35.5,34.5,29.82,SSW,210,2.0,3.0,96,0.01,,SCT120,0.04,48.00,VWS V14.01,2013-12-21 14:28:00,
2013-12-21 09:29:00,35.5,34.5,29.82,SSW,210,2.0,3.0,96,0.01,,SCT120,0.04,48.00,VWS V14.01,2013-12-21 14:29:00,
2013-12-21 09:30:00,35.5,34.5,29.82,SSW,210,2.0,3.0,96,0.01,,SCT120,0.04,49.00,VWS V14.01,2013-12-21 14:30:00,
2013-12-21 09:32:00,35.5,34.5,29.82,SW,224,2.0,3.0,96,0.01,,SCT120,0.04,53.00,VWS V14.01,2013-12-21 14:32:00,
2013-12-21 09:33:00,35.5,34.5,29.82,WSW,246,1.0,3.0,96,0.01,,SCT120,0.04,55.00,VWS V14.01,2013-12-21 14:33:00,
2013-12-21 09:34:00,35.5,34.5,29.82,WSW,247,0.0,1.0,96,0.01,,SCT120,0.04,56.00,VWS V14.01,2013-12-21 14:34:00,
2013-12-21 09:36:00,35.6,34.6,29.82,WSW,247,0.0,1.0,96,0.01,,SCT120,0.04,56.00,VWS V14.01,2013-12-21 14:36:00,
2013-12-21 09:38:00,35.6,34.6,29.82,WSW,247,0.0,1.0,96,0.01,,SCT120,0.04,49.00,VWS V14.01,2013-12-21 14:38:00,
2013-12-21 09:39:00,35.6,34.6,29.82,WSW,247,0.0,1.0,96,0.01,,SCT120,0.04,48.00,VWS V14.01,2013-12-21 14:39:00,
2013-12-21 09:40:00,35.6,34.6,29.82,WSW,247,1.0,1.0,96,0.01,,SCT120,0.04,48.00,VWS V14.01,2013-12-21 14:40:00,
2013-12-21 09:41:00,35.6,34.6,29.82,WSW,247,0.0,1.0,96,0.01,,SCT120,0.04,42.00,VWS V14.01,2013-12-21 14:41:00,
2013-12-21 09:43:00,35.6,34.6,29.82,WSW,247,0.0,1.0,96,0.01,,SCT120,0.04,42.00,VWS V14.01,2013-12-21 14:43:00,
2013-12-21 09:44:00,35.8,34.8,29.82,WSW,247,0.0,1.0,96,0.01,,SCT120,0.04,42.00,VWS V14.01,2013-12-21 14:44:00,
2013-12-21 09:45:00,35.8,34.8,29.82,WSW,247,1.0,1.0,96,0.01,,SCT120,0.04,42.00,VWS V14.01,2013-12-21 14:45:00,
2013-12-21 09:46:00,35.8,34.8,29.82,WSW,247,0.0,1.0,96,0.01,,SCT120,0.04,40.00,VWS V14.01,2013-12-21 14:46:00,
2013-12-21 09:47:00,35.8,34.8,29.82,WSW,247,1.0,1.0,96,0.01,,SCT120,0.04,35.00,VWS V14.01,2013-12-21 14:47:00,
2013-12-21 09:48:00,35.8,34.8,29.82,WSW,247,0.0,1.0,96,0.01,,SCT120,0.04,33.00,VWS V14.01,2013-12-21 14:48:00,
2013-12-21 09:49:00,35.8,34.8,29.82,WSW,247,0.0,1.0,96,0.01,,SCT120,0.04,33.00,VWS V14.01,2013-12-21 14:49:00,
2013-12-21 09:50:00,35.8,34.8,29.82,WSW,247,0.0,1.0,96,0.01,,SCT120,0.04,33.00,VWS V14.01,2013-12-21 14:50:00,
2013-12-21 09:51:00,35.8,34.8,29.82,WSW,247,0.0,1.0,96,0.01,,SCT120,0.04,33.00,VWS V14.01,2013-12-21 14:51:00,
2013-12-21 09:53:00,35.8,34.8,29.82,WSW,247,0.0,1.0,96,0.01,,SCT120,0.04,32.00,VWS V14.01,2013-12-21 14:53:00,
2013-12-21 09:54:00,35.8,34.8,29.82,WSW,247,0.0,1.0,96,0.01,,SCT120,0.04,32.00,VWS V14.01,2013-12-21 14:54:00,
2013-12-21 09:55:00,35.9,34.9,29.82,WSW,247,0.0,1.0,96,0.01,,SCT120,0.04,32.00,VWS V14.01,2013-12-21 14:55:00,
2013-12-21 09:56:00,35.9,34.9,29.82,WSW,247,0.0,1.0,96,0.01,,SCT120,0.04,44.00,VWS V14.01,2013-12-21 14:56:00,
2013-12-21 09:57:00,35.9,34.9,29.82,WSW,247,0.0,1.0,96,0.01,,SCT120,0.04,44.00,VWS V14.01,2013-12-21 14:57:00,
2013-12-21 09:58:00,35.9,34.9,29.82,WSW,247,0.0,1.0,96,0.01,,SCT120,0.04,44.00,VWS V14.01,2013-12-21 14:58:00,
2013-12-21 09:59:00,35.9,34.9,29.82,WSW,246,1.0,1.0,96,0.01,,SCT120,0.04,44.00,VWS V14.01,2013-12-21 14:59:00,
2013-12-21 10:00:00,35.9,34.9,29.82,South,175,1.0,2.0,96,0.01,,FEW120,0.04,48.00,VWS V14.01,2013-12-21 15:00:00,
2013-12-21 10:01:00,35.9,34.9,29.82,South,175,1.0,2.0,96,0.01,,FEW120,0.04,48.00,VWS V14.01,2013-12-21 15:01:00,
2013-12-21 10:02:00,35.9,34.9,29.82,South,175,1.0,2.0,96,0.01,,FEW120,0.04,48.00,VWS V14.01,2013-12-21 15:02:00,
2013-12-21 10:04:00,35.9,34.9,29.82,SSE,165,1.0,2.0,96,0.00,,FEW120,0.04,48.00,VWS V14.01,2013-12-21 15:04:00,
2013-12-21 10:06:00,35.9,34.9,29.82,SSE,165,1.0,2.0,96,0.00,,FEW120,0.04,51.00,VWS V14.01,2013-12-21 15:06:00,
2013-12-21 10:07:00,35.9,34.9,29.82,SSE,165,2.0,2.0,96,0.00,,FEW120,0.04,51.00,VWS V14.01,2013-12-21 15:07:00,
2013-12-21 10:09:00,35.9,34.9,29.82,SSE,165,0.0,2.0,96,0.00,,FEW120,0.04,46.00,VWS V14.01,2013-12-21 15:09:00,
2013-12-21 10:12:00,36.0,35.0,29.82,SSE,165,1.0,2.0,96,0.00,,FEW120,0.04,46.00,VWS V14.01,2013-12-21 15:12:00,
2013-12-21 10:13:00,36.0,35.0,29.82,SSE,165,1.0,2.0,96,0.00,,FEW120,0.04,40.00,VWS V14.01,2013-12-21 15:13:00,
2013-12-21 10:14:00,36.0,35.0,29.82,SE,144,0.0,3.0,96,0.01,,FEW120,0.05,40.00,VWS V14.01,2013-12-21 15:14:00,
2013-12-21 10:17:00,36.0,35.0,29.81,SE,144,1.0,3.0,96,0.01,,FEW120,0.05,33.00,VWS V14.01,2013-12-21 15:17:00,
2013-12-21 10:18:00,36.0,35.0,29.81,SE,144,0.0,3.0,96,0.01,,FEW120,0.05,33.00,VWS V14.01,2013-12-21 15:18:00,
2013-12-21 10:19:00,36.0,35.0,29.81,SE,144,0.0,3.0,96,0.01,,FEW120,0.05,33.00,VWS V14.01,2013-12-21 15:19:00,
2013-12-21 10:20:00,36.0,35.0,29.81,SE,144,0.0,3.0,96,0.01,,FEW120,0.05,33.00,VWS V14.01,2013-12-21 15:20:00,
2013-12-21 10:22:00,36.0,35.0,29.81,SE,144,1.0,3.0,96,0.01,,FEW120,0.05,32.00,VWS V14.01,2013-12-21 15:22:00,
2013-12-21 10:23:00,36.2,35.2,29.81,SE,144,0.0,3.0,96,0.01,,FEW120,0.05,32.00,VWS V14.01,2013-12-21 15:23:00,
2013-12-21 10:24:00,36.2,35.2,29.81,SE,144,2.0,3.0,96,0.01,,FEW120,0.05,32.00,VWS V14.01,2013-12-21 15:24:00,
2013-12-21 10:25:00,36.2,35.2,29.81,SE,144,0.0,3.0,96,0.01,,FEW120,0.05,32.00,VWS V14.01,2013-12-21 15:25:00,
2013-12-21 10:28:00,36.2,34.9,29.81,SE,144,1.0,3.0,95,0.01,,FEW120,0.05,33.00,VWS V14.01,2013-12-21 15:28:00,
2013-12-21 10:30:00,36.2,34.9,29.81,SE,144,2.0,3.0,95,0.01,,FEW120,0.05,39.00,VWS V14.01,2013-12-21 15:30:00,
2013-12-21 10:31:00,36.2,34.9,29.81,SE,145,1.0,3.0,95,0.01,,FEW120,0.05,39.00,VWS V14.01,2013-12-21 15:31:00,
2013-12-21 10:33:00,36.2,34.9,29.81,South,181,2.0,3.0,95,0.01,,FEW120,0.05,39.00,VWS V14.01,2013-12-21 15:33:00,
2013-12-21 10:35:00,36.2,34.9,29.81,South,189,1.0,2.0,95,0.01,,FEW120,0.05,37.00,VWS V14.01,2013-12-21 15:35:00,
2013-12-21 10:36:00,36.2,34.9,29.81,SSE,168,1.0,2.0,95,0.01,,FEW120,0.05,37.00,VWS V14.01,2013-12-21 15:36:00,
2013-12-21 10:37:00,36.2,34.9,29.81,South,188,1.0,2.0,95,0.01,,FEW120,0.05,37.00,VWS V14.01,2013-12-21 15:37:00,
2013-12-21 10:38:00,36.2,34.9,29.81,South,185,1.0,3.0,95,0.01,,FEW120,0.05,33.00,VWS V14.01,2013-12-21 15:38:00,
2013-12-21 10:39:00,36.2,34.9,29.81,South,185,1.0,3.0,95,0.01,,FEW120,0.05,33.00,VWS V14.01,2013-12-21 15:39:00,
2013-12-21 10:40:00,36.2,34.9,29.81,SSE,168,2.0,3.0,95,0.01,,FEW120,0.05,33.00,VWS V14.01,2013-12-21 15:40:00,
2013-12-21 10:41:00,36.2,34.9,29.81,South,186,1.0,3.0,95,0.01,,FEW120,0.05,33.00,VWS V14.01,2013-12-21 15:41:00,
2013-12-21 10:43:00,36.2,34.9,29.81,South,182,1.0,3.0,95,0.01,,FEW120,0.05,33.00,VWS V14.01,2013-12-21 15:43:00,
2013-12-21 10:44:00,36.2,34.9,29.81,South,182,0.0,3.0,95,0.01,,FEW120,0.05,33.00,VWS V14.01,2013-12-21 15:44:00,
2013-12-21 10:46:00,36.2,34.9,29.81,South,175,1.0,3.0,95,0.01,,FEW120,0.05,33.00,VWS V14.01,2013-12-21 15:46:00,
2013-12-21 10:48:00,36.3,35.0,29.82,South,182,0.0,3.0,95,0.01,,FEW120,0.05,33.00,VWS V14.01,2013-12-21 15:48:00,
2013-12-21 10:49:00,36.3,35.0,29.82,South,182,0.0,3.0,95,0.01,,FEW120,0.05,33.00,VWS V14.01,2013-12-21 15:49:00,
2013-12-21 10:50:00,36.3,35.0,29.82,South,182,1.0,3.0,95,0.01,,FEW120,0.05,33.00,VWS V14.01,2013-12-21 15:50:00,
2013-12-21 10:51:00,36.3,35.0,29.82,South,182,0.0,3.0,95,0.01,,FEW120,0.05,37.00,VWS V14.01,2013-12-21 15:51:00,
2013-12-21 10:53:00,36.2,34.9,29.82,South,182,2.0,3.0,95,0.01,,FEW120,0.05,37.00,VWS V14.01,2013-12-21 15:53:00,
2013-12-21 10:55:00,36.2,34.9,29.82,South,182,1.0,3.0,95,0.01,,FEW120,0.05,39.00,VWS V14.01,2013-12-21 15:55:00,
2013-12-21 10:56:00,36.3,35.0,29.82,South,169,1.0,3.0,95,0.01,,FEW120,0.05,39.00,VWS V14.01,2013-12-21 15:56:00,
2013-12-21 10:58:00,36.3,34.7,29.82,South,169,1.0,3.0,94,0.01,,FEW120,0.05,39.00,VWS V14.01,2013-12-21 15:58:00,
2013-12-21 10:59:00,36.3,34.7,29.82,South,169,0.0,3.0,94,0.01,,FEW120,0.05,49.00,VWS V14.01,2013-12-21 15:59:00,
2013-12-21 11:00:00,36.3,34.7,29.82,South,169,0.0,3.0,94,0.01,,OVC110,0.05,49.00,VWS V14.01,2013-12-21 16:00:00,
2013-12-21 11:01:00,36.3,34.7,29.82,South,169,0.0,3.0,94,0.01,,OVC110,0.05,49.00,VWS V14.01,2013-12-21 16:01:00,
2013-12-21 11:02:00,36.3,34.7,29.82,South,169,0.0,3.0,94,0.01,,OVC110,0.05,49.00,VWS V14.01,2013-12-21 16:02:00,
2013-12-21 11:04:00,36.3,34.7,29.80,South,169,0.0,1.0,94,0.01,,OVC110,0.05,49.00,VWS V14.01,2013-12-21 16:04:00,
2013-12-21 11:05:00,36.3,34.7,29.80,South,169,0.0,1.0,94,0.01,,OVC110,0.05,49.00,VWS V14.01,2013-12-21 16:05:00,
2013-12-21 11:06:00,36.3,34.7,29.80,South,169,0.0,1.0,94,0.01,,OVC110,0.05,49.00,VWS V14.01,2013-12-21 16:06:00,
2013-12-21 11:07:00,36.5,34.9,29.80,South,169,0.0,1.0,94,0.02,,OVC110,0.06,42.00,VWS V14.01,2013-12-21 16:07:00,
2013-12-21 11:08:00,36.5,34.9,29.80,South,169,2.0,2.0,94,0.02,,OVC110,0.06,42.00,VWS V14.01,2013-12-21 16:08:00,
2013-12-21 11:09:00,36.5,34.9,29.80,South,169,1.0,2.0,94,0.02,,OVC110,0.06,42.00,VWS V14.01,2013-12-21 16:09:00,
2013-12-21 11:10:00,36.5,34.9,29.80,South,169,1.0,2.0,94,0.02,,OVC110,0.06,42.00,VWS V14.01,2013-12-21 16:10:00,
2013-12-21 11:11:00,36.5,34.9,29.80,South,169,1.0,2.0,94,0.02,,OVC110,0.06,42.00,VWS V14.01,2013-12-21 16:11:00,
2013-12-21 11:12:00,36.5,34.9,29.80,SSE,167,2.0,2.0,94,0.02,,OVC110,0.06,76.00,VWS V14.01,2013-12-21 16:12:00,
2013-12-21 11:13:00,36.5,34.9,29.80,SSE,167,1.0,2.0,94,0.02,,OVC110,0.06,74.00,VWS V14.01,2013-12-21 16:13:00,
2013-12-21 11:14:00,36.5,34.9,29.80,SSW,209,2.0,2.0,94,0.02,,OVC110,0.06,69.00,VWS V14.01,2013-12-21 16:14:00,
2013-12-21 11:15:00,36.6,35.0,29.80,SSW,209,0.0,2.0,94,0.02,,OVC110,0.06,70.00,VWS V14.01,2013-12-21 16:15:00,
2013-12-21 11:16:00,36.6,35.0,29.80,SSW,209,1.0,2.0,94,0.02,,OVC110,0.06,74.00,VWS V14.01,2013-12-21 16:16:00,
2013-12-21 11:17:00,36.6,35.0,29.77,SSW,209,0.0,2.0,94,0.02,,OVC110,0.06,81.00,VWS V14.01,2013-12-21 16:17:00,
2013-12-21 11:18:00,36.6,35.0,29.77,SSW,209,1.0,2.0,94,0.02,,OVC110,0.06,81.00,VWS V14.01,2013-12-21 16:18:00,
2013-12-21 11:19:00,36.6,35.0,29.77,SSW,209,1.0,2.0,94,0.02,,OVC110,0.06,81.00,VWS V14.01,2013-12-21 16:19:00,
2013-12-21 11:20:00,36.8,35.2,29.77,SSW,209,1.0,2.0,94,0.02,,OVC110,0.06,81.00,VWS V14.01,2013-12-21 16:20:00,
2013-12-21 11:21:00,36.8,35.2,29.77,SSW,209,0.0,2.0,94,0.02,,OVC110,0.06,74.00,VWS V14.01,2013-12-21 16:21:00,
2013-12-21 11:23:00,36.8,35.2,29.77,SSW,209,0.0,2.0,94,0.02,,OVC110,0.06,69.00,VWS V14.01,2013-12-21 16:23:00,
2013-12-21 11:24:00,36.8,35.2,29.77,SSW,209,1.0,2.0,94,0.02,,OVC110,0.06,67.00,VWS V14.01,2013-12-21 16:24:00,
2013-12-21 11:25:00,36.9,35.3,29.77,SSW,205,0.0,2.0,94,0.02,,OVC110,0.06,63.00,VWS V14.01,2013-12-21 16:25:00,
2013-12-21 11:26:00,36.9,35.3,29.77,SSW,206,1.0,2.0,94,0.02,,OVC110,0.06,62.00,VWS V14.01,2013-12-21 16:26:00,
2013-12-21 11:29:00,37.0,35.4,29.77,SSW,206,0.0,2.0,94,0.02,,OVC110,0.06,48.00,VWS V14.01,2013-12-21 16:29:00,
2013-12-21 11:30:00,37.0,35.4,29.77,SSW,206,0.0,2.0,94,0.02,,OVC110,0.06,46.00,VWS V14.01,2013-12-21 16:30:00,
2013-12-21 11:31:00,37.0,35.4,29.77,SSW,206,1.0,2.0,94,0.02,,OVC110,0.06,49.00,VWS V14.01,2013-12-21 16:31:00,
2013-12-21 11:35:00,37.2,35.6,29.76,SSW,206,1.0,1.0,94,0.01,,OVC110,0.06,55.00,VWS V14.01,2013-12-21 16:35:00,
2013-12-21 11:36:00,37.2,35.6,29.76,SSW,206,0.0,1.0,94,0.01,,OVC110,0.06,49.00,VWS V14.01,2013-12-21 16:36:00,
2013-12-21 11:37:00,37.2,35.6,29.76,SSW,206,0.0,1.0,94,0.01,,OVC110,0.06,46.00,VWS V14.01,2013-12-21 16:37:00,
2013-12-21 11:40:00,37.3,35.5,29.76,SSW,206,2.0,2.0,93,0.01,,OVC110,0.06,51.00,VWS V14.01,2013-12-21 16:40:00,
2013-12-21 11:41:00,37.3,35.5,29.76,East,88,1.0,2.0,93,0.01,,OVC110,0.06,55.00,VWS V14.01,2013-12-21 16:41:00,
2013-12-21 11:42:00,37.3,35.5,29.76,NNE,28,2.0,2.0,93,0.01,,OVC110,0.06,55.00,VWS V14.01,2013-12-21 16:42:00,
2013-12-21 11:45:00,37.5,35.7,29.76,North,8,1.0,3.0,93,0.01,,OVC110,0.06,97.00,VWS V14.01,2013-12-21 16:45:00,
2013-12-21 11:46:00,37.6,35.8,29.76,North,8,0.0,3.0,93,0.01,,OVC110,0.06,102.00,VWS V14.01,2013-12-21 16:46:00,
2013-12-21 11:47:00,37.6,35.8,29.76,North,8,0.0,3.0,93,0.01,,OVC110,0.06,102.00,VWS V14.01,2013-12-21 16:47:00,
2013-12-21 11:48:00,37.6,35.8,29.75,North,8,0.0,3.0,93,0.01,,OVC110,0.06,100.00,VWS V14.01,2013-12-21 16:48:00,
2013-12-21 11:51:00,37.8,36.0,29.75,North,8,0.0,3.0,93,0.01,,OVC110,0.06,99.00,VWS V14.01,2013-12-21 16:51:00,
2013-12-21 11:52:00,37.8,36.0,29.75,North,8,0.0,3.0,93,0.01,,OVC110,0.06,104.00,VWS V14.01,2013-12-21 16:52:00,
2013-12-21 11:53:00,37.8,36.0,29.75,North,8,1.0,3.0,93,0.01,,OVC110,0.06,111.00,VWS V14.01,2013-12-21 16:53:00,
2013-12-21 11:56:00,38.0,36.2,29.75,ENE,69,1.0,3.0,93,0.01,,OVC110,0.06,148.00,VWS V14.01,2013-12-21 16:56:00,
2013-12-21 11:57:00,38.0,36.2,29.75,East,97,0.0,3.0,93,0.01,,OVC110,0.06,151.00,VWS V14.01,2013-12-21 16:57:00,
2013-12-21 11:58:00,38.0,36.2,29.75,East,97,0.0,3.0,93,0.01,,OVC110,0.06,151.00,VWS V14.01,2013-12-21 16:58:00,
2013-12-21 11:59:00,38.2,36.4,29.75,East,100,2.0,3.0,93,0.01,,OVC110,0.06,151.00,VWS V14.01,2013-12-21 16:59:00,
2013-12-21 12:00:00,38.5,36.7,29.73,SE,134,1.0,3.0,93,0.01,,,0.06,151.00,VWS V15.00,2013-12-21 17:00:00,
2013-12-21 12:01:00,38.3,36.5,29.75,East,100,2.0,3.0,93,0.01,,SCT090,0.06,150.00,VWS V14.01,2013-12-21 17:01:00,
2013-12-21 12:02:00,38.3,36.5,29.73,SE,134,2.0,3.0,93,0.01,,SCT090,0.06,151.00,VWS V14.01,2013-12-21 17:02:00,
2013-12-21 12:03:00,38.5,36.7,29.73,SE,134,1.0,1.0,93,0.01,,SCT090,0.06,151.00,VWS V14.01,2013-12-21 17:03:00,
2013-12-21 12:04:00,38.5,36.7,29.73,SE,134,1.0,1.0,93,0.01,,SCT090,0.06,153.00,VWS V14.01,2013-12-21 17:04:00,
2013-12-21 12:05:00,38.6,36.8,29.73,SE,134,1.0,1.0,93,0.01,,SCT090,0.06,153.00,VWS V14.01,2013-12-21 17:05:00,
2013-12-21 12:07:00,38.8,36.7,29.73,SE,134,1.0,2.0,92,0.01,,SCT090,0.06,157.00,VWS V14.01,2013-12-21 17:07:00,
2013-12-21 12:08:00,38.8,36.7,29.73,SE,134,2.0,2.0,92,0.01,,SCT090,0.06,157.00,VWS V14.01,2013-12-21 17:08:00,
2013-12-21 12:09:00,38.9,36.8,29.73,SSE,152,1.0,2.0,92,0.01,,SCT090,0.06,157.00,VWS V14.01,2013-12-21 17:09:00,
2013-12-21 12:10:00,39.1,37.0,29.73,SSW,208,1.0,2.0,92,0.01,,SCT090,0.06,160.00,VWS V14.01,2013-12-21 17:10:00,
2013-12-21 12:11:00,39.1,37.0,29.73,SSW,203,2.0,2.0,92,0.01,,SCT090,0.06,160.00,VWS V14.01,2013-12-21 17:11:00,
2013-12-21 12:13:00,39.2,37.1,29.73,SSW,198,2.0,2.0,92,0.02,,SCT090,0.07,164.00,VWS V14.01,2013-12-21 17:13:00,
2013-12-21 12:14:00,39.2,37.1,29.73,SSW,196,4.0,5.0,92,0.02,,SCT090,0.07,167.00,VWS V14.01,2013-12-21 17:14:00,
2013-12-21 12:16:00,39.3,36.9,29.73,SSW,203,1.0,5.0,91,0.02,,SCT090,0.07,172.00,VWS V14.01,2013-12-21 17:16:00,
2013-12-21 12:17:00,39.5,37.1,29.73,SW,215,1.0,5.0,91,0.02,,SCT090,0.07,178.00,VWS V14.01,2013-12-21 17:17:00,
2013-12-21 12:18:00,39.5,37.1,29.73,South,174,3.0,5.0,91,0.02,,SCT090,0.07,181.00,VWS V14.01,2013-12-21 17:18:00,
2013-12-21 12:19:00,39.5,37.1,29.73,SSW,202,2.0,5.0,91,0.02,,SCT090,0.07,185.00,VWS V14.01,2013-12-21 17:19:00,
2013-12-21 12:21:00,39.6,36.9,29.73,SW,220,4.0,7.0,90,0.02,,SCT090,0.07,190.00,VWS V14.01,2013-12-21 17:21:00,
2013-12-21 12:22:00,39.8,37.1,29.73,SSE,152,2.0,7.0,90,0.02,,SCT090,0.07,192.00,VWS V14.01,2013-12-21 17:22:00,
2013-12-21 12:24:00,39.9,37.2,29.73,South,181,2.0,7.0,90,0.02,,SCT090,0.07,192.00,VWS V14.01,2013-12-21 17:24:00,
2013-12-21 12:26:00,40.1,37.1,29.73,South,176,3.0,7.0,89,0.02,,SCT090,0.07,195.00,VWS V14.01,2013-12-21 17:26:00,
2013-12-21 12:29:00,40.2,36.9,29.73,South,178,3.0,7.0,88,0.02,,SCT090,0.07,194.00,VWS V14.01,2013-12-21 17:29:00,
2013-12-21 12:30:00,40.3,37.0,29.73,South,178,1.0,7.0,88,0.02,,SCT090,0.07,194.00,VWS V14.01,2013-12-21 17:30:00,
2013-12-21 12:31:00,40.3,37.0,29.73,WSW,247,2.0,7.0,88,0.02,,SCT090,0.07,192.00,VWS V14.01,2013-12-21 17:31:00,
2013-12-21 12:34:00,40.6,37.3,29.74,East,86,1.0,1.0,88,0.01,,SCT090,0.07,190.00,VWS V14.01,2013-12-21 17:34:00,
2013-12-21 12:35:00,40.6,37.3,29.74,East,86,0.0,1.0,88,0.01,,SCT090,0.07,190.00,VWS V14.01,2013-12-21 17:35:00,
2013-12-21 12:36:00,40.8,37.5,29.74,NE,48,1.0,2.0,88,0.01,,SCT090,0.07,188.00,VWS V14.01,2013-12-21 17:36:00,
2013-12-21 12:37:00,40.8,37.5,29.74,NE,44,1.0,2.0,88,0.01,,SCT090,0.07,187.00,VWS V14.01,2013-12-21 17:37:00,
2013-12-21 12:40:00,41.1,37.8,29.74,North,0,3.0,3.0,88,0.02,,SCT090,0.08,178.00,VWS V14.01,2013-12-21 17:40:00,
2013-12-21 12:41:00,41.1,37.5,29.74,North,0,1.0,3.0,87,0.02,,SCT090,0.08,178.00,VWS V14.01,2013-12-21 17:41:00,
2013-12-21 12:42:00,41.2,37.6,29.74,NNE,18,4.0,5.0,87,0.02,,SCT090,0.08,174.00,VWS V14.01,2013-12-21 17:42:00,
2013-12-21 12:45:00,41.2,37.0,29.74,NE,35,2.0,8.0,85,0.02,,SCT090,0.08,167.00,VWS V14.01,2013-12-21 17:45:00,
2013-12-21 12:46:00,41.2,37.0,29.74,NE,35,1.0,8.0,85,0.02,,SCT090,0.08,167.00,VWS V14.01,2013-12-21 17:46:00,
2013-12-21 12:47:00,41.3,37.1,29.74,North,0,6.0,8.0,85,0.02,,SCT090,0.08,164.00,VWS V14.01,2013-12-21 17:47:00,
2013-12-21 12:48:00,41.3,37.1,29.75,North,6,3.0,8.0,85,0.02,,SCT090,0.08,164.00,VWS V14.01,2013-12-21 17:48:00,
2013-12-21 12:50:00,41.3,37.1,29.75,North,1,3.0,8.0,85,0.02,,SCT090,0.08,158.00,VWS V14.01,2013-12-21 17:50:00,
2013-12-21 12:51:00,41.3,37.1,29.75,North,357,4.0,8.0,85,0.02,,SCT090,0.08,157.00,VWS V14.01,2013-12-21 17:51:00,
2013-12-21 12:53:00,41.3,37.1,29.75,NNW,328,2.0,8.0,85,0.02,,SCT090,0.08,155.00,VWS V14.01,2013-12-21 17:53:00,
2013-12-21 12:54:00,41.5,37.3,29.75,North,350,2.0,8.0,85,0.02,,SCT090,0.08,155.00,VWS V14.01,2013-12-21 17:54:00,
2013-12-21 12:56:00,41.5,37.0,29.75,NNW,343,1.0,8.0,84,0.02,,SCT090,0.08,153.00,VWS V14.01,2013-12-21 17:56:00,
2013-12-21 12:58:00,41.6,37.1,29.75,NW,316,3.0,8.0,84,0.02,,SCT090,0.08,148.00,VWS V14.01,2013-12-21 17:58:00,
2013-12-21 12:59:00,41.6,37.1,29.75,WNW,291,1.0,8.0,84,0.02,,SCT090,0.08,148.00,VWS V14.01,2013-12-21 17:59:00,
2013-12-21 13:00:00,41.8,37.3,29.74,NW,316,1.0,8.0,84,0.02,,,0.08,141.00,VWS V15.00,2013-12-21 18:00:00,
2013-12-21 13:01:00,41.8,37.6,29.75,NW,308,2.0,8.0,85,0.02,,CLR,0.08,144.00,VWS V14.01,2013-12-21 18:01:00,
2013-12-21 13:02:00,41.8,37.6,29.75,NW,315,1.0,8.0,85,0.02,,CLR,0.08,143.00,VWS V14.01,2013-12-21 18:02:00,
2013-12-21 13:04:00,41.9,37.7,29.74,WNW,282,3.0,4.0,85,0.02,,CLR,0.08,139.00,VWS V14.01,2013-12-21 18:04:00,
2013-12-21 13:07:00,42.2,38.0,29.74,WNW,302,3.0,5.0,85,0.02,,CLR,0.08,135.00,VWS V14.01,2013-12-21 18:07:00,
2013-12-21 13:09:00,42.3,38.1,29.74,NW,323,0.0,5.0,85,0.02,,CLR,0.08,134.00,VWS V14.01,2013-12-21 18:09:00,
2013-12-21 13:10:00,42.3,38.1,29.74,NW,323,0.0,5.0,85,0.02,,CLR,0.08,134.00,VWS V14.01,2013-12-21 18:10:00,
2013-12-21 13:12:00,42.5,38.3,29.74,NW,323,1.0,5.0,85,0.02,,CLR,0.08,134.00,VWS V14.01,2013-12-21 18:12:00,
2013-12-21 13:13:00,42.6,38.4,29.74,NW,323,1.0,5.0,85,0.02,,CLR,0.08,135.00,VWS V14.01,2013-12-21 18:13:00,
2013-12-21 13:14:00,42.6,38.4,29.74,NW,323,0.0,5.0,85,0.02,,CLR,0.08,137.00,VWS V14.01,2013-12-21 18:14:00,
2013-12-21 13:16:00,42.6,38.4,29.74,NW,323,0.0,5.0,85,0.02,,CLR,0.08,137.00,VWS V14.01,2013-12-21 18:16:00,
2013-12-21 13:17:00,42.8,38.6,29.73,NW,323,0.0,5.0,85,0.02,,CLR,0.08,137.00,VWS V14.01,2013-12-21 18:17:00,
2013-12-21 13:18:00,42.9,38.7,29.73,NW,322,1.0,5.0,85,0.02,,CLR,0.08,137.00,VWS V14.01,2013-12-21 18:18:00,
2013-12-21 13:20:00,43.1,38.6,29.73,NW,323,0.0,5.0,84,0.02,,CLR,0.08,146.00,VWS V14.01,2013-12-21 18:20:00,
2013-12-21 13:21:00,43.1,38.6,29.73,NW,323,2.0,5.0,84,0.02,,CLR,0.08,146.00,VWS V14.01,2013-12-21 18:21:00,
2013-12-21 13:23:00,43.2,38.7,29.73,NNW,328,2.0,5.0,84,0.02,,CLR,0.08,146.00,VWS V14.01,2013-12-21 18:23:00,
2013-12-21 13:24:00,43.2,38.4,29.73,NNW,328,1.0,5.0,83,0.02,,CLR,0.08,146.00,VWS V14.01,2013-12-21 18:24:00,
2013-12-21 13:25:00,43.3,38.5,29.73,NW,311,0.0,5.0,83,0.02,,CLR,0.08,150.00,VWS V14.01,2013-12-21 18:25:00,
2013-12-21 13:26:00,43.3,38.5,29.73,NW,311,0.0,5.0,83,0.02,,CLR,0.08,150.00,VWS V14.01,2013-12-21 18:26:00,
2013-12-21 13:28:00,43.5,38.7,29.73,NW,311,0.0,5.0,83,0.02,,CLR,0.08,151.00,VWS V14.01,2013-12-21 18:28:00,
2013-12-21 13:29:00,43.6,38.8,29.73,WNW,295,2.0,5.0,83,0.03,,CLR,0.09,150.00,VWS V14.01,2013-12-21 18:29:00,
2013-12-21 13:30:00,43.6,38.8,29.73,NW,316,2.0,5.0,83,0.03,,CLR,0.09,148.00,VWS V14.01,2013-12-21 18:30:00,
2013-12-21 13:31:00,43.8,38.7,29.73,NW,312,2.0,5.0,82,0.03,,CLR,0.09,146.00,VWS V14.01,2013-12-21 18:31:00,
2013-12-21 13:34:00,43.8,38.7,29.74,NW,309,2.0,3.0,82,0.02,,CLR,0.09,137.00,VWS V14.01,2013-12-21 18:34:00,
2013-12-21 13:35:00,43.9,38.5,29.74,NW,318,2.0,3.0,81,0.02,,CLR,0.09,125.00,VWS V14.01,2013-12-21 18:35:00,
2013-12-21 13:36:00,43.9,38.5,29.74,NW,319,1.0,3.0,81,0.02,,CLR,0.09,118.00,VWS V14.01,2013-12-21 18:36:00,
2013-12-21 13:37:00,44.1,38.7,29.74,NW,326,0.0,3.0,81,0.02,,CLR,0.09,113.00,VWS V14.01,2013-12-21 18:37:00,
2013-12-21 13:39:00,44.1,38.7,29.74,WNW,288,1.0,3.0,81,0.02,,CLR,0.09,109.00,VWS V14.01,2013-12-21 18:39:00,
2013-12-21 13:40:00,44.1,38.7,29.74,WNW,288,1.0,3.0,81,0.02,,CLR,0.09,104.00,VWS V14.01,2013-12-21 18:40:00,
2013-12-21 13:42:00,44.2,38.4,29.74,WNW,289,2.0,3.0,80,0.02,,CLR,0.09,95.00,VWS V14.01,2013-12-21 18:42:00,
2013-12-21 13:45:00,44.2,38.1,29.74,NW,320,1.0,4.0,79,0.02,,CLR,0.09,90.00,VWS V14.01,2013-12-21 18:45:00,
2013-12-21 13:47:00,44.3,38.5,29.75,NW,312,4.0,4.0,80,0.02,,CLR,0.09,91.00,VWS V14.01,2013-12-21 18:47:00,
2013-12-21 13:49:00,44.3,38.5,29.75,NW,306,1.0,4.0,80,0.02,,CLR,0.09,88.00,VWS V14.01,2013-12-21 18:49:00,
2013-12-21 13:50:00,44.3,38.2,29.75,NW,306,2.0,4.0,79,0.02,,CLR,0.09,95.00,VWS V14.01,2013-12-21 18:50:00,
2013-12-21 13:51:00,44.3,38.2,29.75,NW,306,0.0,4.0,79,0.02,,CLR,0.09,95.00,VWS V14.01,2013-12-21 18:51:00,
2013-12-21 13:52:00,44.3,38.2,29.75,NW,316,2.0,4.0,79,0.02,,CLR,0.09,104.00,VWS V14.01,2013-12-21 18:52:00,
2013-12-21 13:53:00,44.3,38.2,29.75,NW,305,0.0,4.0,79,0.02,,CLR,0.09,104.00,VWS V14.01,2013-12-21 18:53:00,
2013-12-21 13:55:00,44.3,38.2,29.75,NW,305,0.0,4.0,79,0.02,,CLR,0.09,86.00,VWS V14.01,2013-12-21 18:55:00,
2013-12-21 13:56:00,44.3,38.2,29.75,WNW,301,2.0,4.0,79,0.02,,CLR,0.09,81.00,VWS V14.01,2013-12-21 18:56:00,
2013-12-21 13:58:00,44.3,38.2,29.75,WNW,287,1.0,4.0,79,0.02,,CLR,0.09,77.00,VWS V14.01,2013-12-21 18:58:00,
2013-12-21 14:00:00,44.5,38.1,29.74,NW,306,1.0,4.0,78,0.02,,,0.09,77.00,VWS V15.00,2013-12-21 19:00:00,
2013-12-21 14:01:00,44.5,38.4,29.75,NW,306,1.0,4.0,79,0.02,,OVC090,0.09,81.00,VWS V14.01,2013-12-21 19:01:00,
2013-12-21 14:02:00,44.5,38.4,29.75,NW,306,1.0,4.0,79,0.02,,OVC090,0.09,79.00,VWS V14.01,2013-12-21 19:02:00,
2013-12-21 14:03:00,44.5,38.1,29.74,NW,306,1.0,4.0,78,0.02,,OVC090,0.09,77.00,VWS V14.01,2013-12-21 19:03:00,
2013-12-21 14:06:00,44.5,38.4,29.74,NW,306,0.0,2.0,79,0.01,,OVC090,0.09,58.00,VWS V14.01,2013-12-21 19:06:00,
2013-12-21 14:07:00,44.5,38.4,29.74,NW,306,0.0,2.0,79,0.01,,OVC090,0.09,58.00,VWS V14.01,2013-12-21 19:07:00,
2013-12-21 14:09:00,44.5,38.4,29.74,NW,306,0.0,2.0,79,0.01,,OVC090,0.09,44.00,VWS V14.01,2013-12-21 19:09:00,
2013-12-21 14:10:00,44.5,38.4,29.74,NW,306,1.0,2.0,79,0.01,,OVC090,0.09,44.00,VWS V14.01,2013-12-21 19:10:00,
2013-12-21 14:11:00,44.5,38.4,29.74,NW,306,1.0,2.0,79,0.01,,OVC090,0.09,42.00,VWS V14.01,2013-12-21 19:11:00,
2013-12-21 14:12:00,44.5,38.4,29.74,NW,306,1.0,2.0,79,0.01,,OVC090,0.09,39.00,VWS V14.01,2013-12-21 19:12:00,
2013-12-21 14:13:00,44.5,38.4,29.74,NW,306,1.0,2.0,79,0.01,,OVC090,0.09,37.00,VWS V14.01,2013-12-21 19:13:00,
2013-12-21 14:14:00,44.3,38.2,29.74,NW,306,1.0,2.0,79,0.01,,OVC090,0.09,37.00,VWS V14.01,2013-12-21 19:14:00,
2013-12-21 14:15:00,44.3,38.2,29.74,NW,306,0.0,2.0,79,0.01,,OVC090,0.09,39.00,VWS V14.01,2013-12-21 19:15:00,
2013-12-21 14:16:00,44.3,38.2,29.74,NW,306,1.0,2.0,79,0.01,,OVC090,0.09,37.00,VWS V14.01,2013-12-21 19:16:00,
2013-12-21 14:17:00,44.3,38.5,29.74,NW,306,2.0,2.0,80,0.01,,OVC090,0.09,33.00,VWS V14.01,2013-12-21 19:17:00,
2013-12-21 14:19:00,44.3,38.2,29.74,WNW,288,0.0,2.0,79,0.01,,OVC090,0.09,28.00,VWS V14.01,2013-12-21 19:19:00,
2013-12-21 14:20:00,44.3,38.2,29.74,WNW,288,1.0,2.0,79,0.01,,OVC090,0.09,28.00,VWS V14.01,2013-12-21 19:20:00,
2013-12-21 14:21:00,44.2,38.1,29.74,WNW,289,2.0,2.0,79,0.01,,OVC090,0.09,28.00,VWS V14.01,2013-12-21 19:21:00,
2013-12-21 14:22:00,44.2,38.1,29.74,WNW,289,1.0,2.0,79,0.01,,OVC090,0.09,28.00,VWS V14.01,2013-12-21 19:22:00,
2013-12-21 14:24:00,44.2,38.1,29.74,WNW,289,0.0,2.0,79,0.01,,OVC090,0.09,23.00,VWS V14.01,2013-12-21 19:24:00,
2013-12-21 14:25:00,44.2,38.1,29.74,WNW,289,1.0,2.0,79,0.01,,OVC090,0.09,23.00,VWS V14.01,2013-12-21 19:25:00,
2013-12-21 14:26:00,44.2,38.1,29.74,WNW,289,0.0,2.0,79,0.01,,OVC090,0.09,23.00,VWS V14.01,2013-12-21 19:26:00,
2013-12-21 14:27:00,44.2,38.1,29.74,WNW,289,0.0,2.0,79,0.01,,OVC090,0.09,16.00,VWS V14.01,2013-12-21 19:27:00,
2013-12-21 14:30:00,44.1,38.0,29.74,West,281,1.0,2.0,79,0.02,,OVC090,0.10,16.00,VWS V14.01,2013-12-21 19:30:00,
2013-12-21 14:31:00,44.1,38.0,29.74,West,281,0.0,2.0,79,0.02,,OVC090,0.10,18.00,VWS V14.01,2013-12-21 19:31:00,
2013-12-21 14:32:00,44.1,38.3,29.74,West,263,1.0,2.0,80,0.02,,OVC090,0.10,18.00,VWS V14.01,2013-12-21 19:32:00,
2013-12-21 14:35:00,43.9,38.1,29.75,West,280,0.0,2.0,80,0.01,,OVC090,0.10,14.00,VWS V14.01,2013-12-21 19:35:00,
2013-12-21 14:36:00,43.9,38.1,29.75,West,280,2.0,2.0,80,0.01,,OVC090,0.10,14.00,VWS V14.01,2013-12-21 19:36:00,
2013-12-21 14:37:00,43.9,38.1,29.75,West,280,1.0,2.0,80,0.01,,OVC090,0.10,14.00,VWS V14.01,2013-12-21 19:37:00,
2013-12-21 14:38:00,43.9,38.1,29.75,WNW,287,1.0,2.0,80,0.01,,OVC090,0.10,14.00,VWS V14.01,2013-12-21 19:38:00,
2013-12-21 14:41:00,43.8,38.0,29.75,WNW,287,0.0,2.0,80,0.01,,OVC090,0.10,14.00,VWS V14.01,2013-12-21 19:41:00,
2013-12-21 14:42:00,43.8,38.4,29.75,WNW,287,0.0,2.0,81,0.01,,OVC090,0.10,14.00,VWS V14.01,2013-12-21 19:42:00,
2013-12-21 14:43:00,43.8,38.4,29.75,WNW,287,1.0,2.0,81,0.01,,OVC090,0.10,14.00,VWS V14.01,2013-12-21 19:43:00,
2013-12-21 14:47:00,43.8,38.4,29.75,West,271,1.0,2.0,81,0.01,,OVC090,0.10,14.00,VWS V14.01,2013-12-21 19:47:00,
2013-12-21 14:48:00,43.6,38.2,29.75,West,268,1.0,2.0,81,0.01,,OVC090,0.10,18.00,VWS V14.01,2013-12-21 19:48:00,
2013-12-21 14:49:00,43.6,38.2,29.75,West,268,1.0,2.0,81,0.01,,OVC090,0.10,18.00,VWS V14.01,2013-12-21 19:49:00,
2013-12-21 14:52:00,43.5,37.8,29.75,West,267,2.0,2.0,80,0.01,,OVC090,0.10,18.00,VWS V14.01,2013-12-21 19:52:00,
2013-12-21 14:53:00,43.5,37.8,29.75,West,267,0.0,2.0,80,0.01,,OVC090,0.10,18.00,VWS V14.01,2013-12-21 19:53:00,
2013-12-21 14:54:00,43.5,37.8,29.75,West,267,0.0,2.0,80,0.01,,OVC090,0.10,18.00,VWS V14.01,2013-12-21 19:54:00,
2013-12-21 14:57:00,43.3,37.6,29.75,West,267,1.0,2.0,80,0.01,,OVC090,0.10,25.00,VWS V14.01,2013-12-21 19:57:00,
2013-12-21 14:58:00,43.3,37.6,29.75,West,267,0.0,2.0,80,0.01,,OVC090,0.10,25.00,VWS V14.01,2013-12-21 19:58:00,
2013-12-21 14:59:00,43.3,37.6,29.75,West,267,0.0,2.0,80,0.01,,OVC090,0.10,25.00,VWS V14.01,2013-12-21 19:59:00,
2013-12-21 15:00:00,43.2,37.8,29.75,NW,311,1.0,3.0,81,0.01,,,0.10,21.00,VWS V15.00,2013-12-21 20:00:00,
2013-12-21 15:03:00,43.2,37.8,29.75,NW,311,1.0,1.0,81,0.01,,SCT090,0.10,21.00,VWS V14.01,2013-12-21 20:03:00,
2013-12-21 15:04:00,43.2,37.8,29.75,WNW,299,3.0,5.0,81,0.01,,SCT090,0.10,21.00,VWS V14.01,2013-12-21 20:04:00,
2013-12-21 15:08:00,43.1,38.0,29.75,NNW,330,2.0,5.0,82,0.01,,SCT090,0.10,14.00,VWS V14.01,2013-12-21 20:08:00,
2013-12-21 15:09:00,43.1,38.0,29.75,NNW,330,0.0,5.0,82,0.01,,SCT090,0.10,14.00,VWS V14.01,2013-12-21 20:09:00,
2013-12-21 15:10:00,43.1,38.0,29.75,NNW,330,0.0,5.0,82,0.01,,SCT090,0.10,14.00,VWS V14.01,2013-12-21 20:10:00,
2013-12-21 15:12:00,43.1,38.3,29.75,ESE,117,1.0,5.0,83,0.01,,SCT090,0.10,14.00,VWS V14.01,2013-12-21 20:12:00,
2013-12-21 15:14:00,43.1,38.3,29.75,ESE,121,1.0,5.0,83,0.01,,SCT090,0.10,18.00,VWS V14.01,2013-12-21 20:14:00,
2013-12-21 15:15:00,43.1,38.3,29.75,ESE,121,0.0,5.0,83,0.01,,SCT090,0.10,18.00,VWS V14.01,2013-12-21 20:15:00,
2013-12-21 15:17:00,43.1,38.3,29.75,ESE,106,0.0,5.0,83,0.01,,SCT090,0.10,14.00,VWS V14.01,2013-12-21 20:17:00,
2013-12-21 15:19:00,43.1,38.3,29.75,ESE,110,0.0,5.0,83,0.01,,SCT090,0.10,14.00,VWS V14.01,2013-12-21 20:19:00,
2013-12-21 15:20:00,43.1,38.3,29.75,North,349,2.0,5.0,83,0.01,,SCT090,0.10,14.00,VWS V14.01,2013-12-21 20:20:00,
2013-12-21 15:23:00,43.1,38.6,29.75,North,3,1.0,5.0,84,0.01,,SCT090,0.10,12.00,VWS V14.01,2013-12-21 20:23:00,
2013-12-21 15:24:00,43.1,38.6,29.75,North,359,1.0,5.0,84,0.01,,SCT090,0.10,12.00,VWS V14.01,2013-12-21 20:24:00,
2013-12-21 15:25:00,43.1,38.6,29.75,North,359,0.0,5.0,84,0.01,,SCT090,0.10,14.00,VWS V14.01,2013-12-21 20:25:00,
2013-12-21 15:26:00,43.1,38.6,29.75,North,359,0.0,5.0,84,0.01,,SCT090,0.10,14.00,VWS V14.01,2013-12-21 20:26:00,
2013-12-21 15:28:00,43.1,38.6,29.75,NW,318,3.0,5.0,84,0.01,,SCT090,0.10,14.00,VWS V14.01,2013-12-21 20:28:00,
2013-12-21 15:30:00,43.1,38.9,29.75,NW,318,0.0,5.0,85,0.01,,SCT090,0.10,9.00,VWS V14.01,2013-12-21 20:30:00,
2013-12-21 15:31:00,43.1,38.9,29.75,NW,318,1.0,5.0,85,0.01,,SCT090,0.10,9.00,VWS V14.01,2013-12-21 20:31:00,
2013-12-21 15:32:00,43.1,38.9,29.75,NW,318,1.0,5.0,85,0.01,,SCT090,0.10,9.00,VWS V14.01,2013-12-21 20:32:00,
2013-12-21 15:33:00,43.1,38.9,29.75,NW,318,1.0,5.0,85,0.01,,SCT090,0.10,9.00,VWS V14.01,2013-12-21 20:33:00,
2013-12-21 15:36:00,43.1,38.9,29.75,NW,309,0.0,1.0,85,0.00,,SCT090,0.10,5.00,VWS V14.01,2013-12-21 20:36:00,
2013-12-21 15:37:00,43.1,38.9,29.75,NW,309,0.0,1.0,85,0.00,,SCT090,0.10,5.00,VWS V14.01,2013-12-21 20:37:00,
2013-12-21 15:38:00,43.1,38.9,29.75,NW,311,1.0,2.0,85,0.00,,SCT090,0.10,0.00,VWS V14.01,2013-12-21 20:38:00,
2013-12-21 15:39:00,43.1,39.2,29.75,NNW,328,1.0,2.0,86,0.00,,SCT090,0.10,0.00,VWS V14.01,2013-12-21 20:39:00,
2013-12-21 15:41:00,43.2,39.3,29.75,NW,305,1.0,2.0,86,0.00,,SCT090,0.10,0.00,VWS V14.01,2013-12-21 20:41:00,
2013-12-21 15:42:00,43.2,39.3,29.75,NW,305,1.0,2.0,86,0.00,,SCT090,0.10,0.00,VWS V14.01,2013-12-21 20:42:00,
2013-12-21 15:43:00,43.2,39.3,29.75,NW,305,0.0,2.0,86,0.00,,SCT090,0.10,0.00,VWS V14.01,2013-12-21 20:43:00,
2013-12-21 15:45:00,43.2,39.3,29.75,WNW,292,1.0,4.0,86,0.00,,SCT090,0.10,0.00,VWS V14.01,2013-12-21 20:45:00,
2013-12-21 15:47:00,43.2,39.3,29.75,NW,311,2.0,5.0,86,0.00,,SCT090,0.10,0.00,VWS V14.01,2013-12-21 20:47:00,
2013-12-21 15:48:00,43.2,39.3,29.75,NW,309,2.0,5.0,86,0.00,,SCT090,0.10,0.00,VWS V14.01,2013-12-21 20:48:00,
2013-12-21 15:51:00,43.2,39.6,29.75,WNW,299,0.0,5.0,87,0.00,,SCT090,0.10,0.00,VWS V14.01,2013-12-21 20:51:00,
2013-12-21 15:52:00,43.3,39.7,29.75,West,265,1.0,5.0,87,0.00,,SCT090,0.10,0.00,VWS V14.01,2013-12-21 20:52:00,
2013-12-21 15:53:00,43.3,39.7,29.75,NW,311,1.0,5.0,87,0.00,,SCT090,0.10,0.00,VWS V14.01,2013-12-21 20:53:00,
2013-12-21 15:55:00,43.3,39.7,29.75,NW,319,1.0,5.0,87,0.00,,SCT090,0.10,0.00,VWS V14.01,2013-12-21 20:55:00,
2013-12-21 15:56:00,43.3,39.7,29.75,NW,312,1.0,5.0,87,0.00,,SCT090,0.10,0.00,VWS V14.01,2013-12-21 20:56:00,
2013-12-21 15:57:00,43.5,39.9,29.75,NW,312,0.0,5.0,87,0.01,,SCT090,0.11,0.00,VWS V14.01,2013-12-21 20:57:00,
2013-12-21 15:59:00,43.5,40.2,29.75,NW,312,1.0,5.0,88,0.01,,SCT090,0.11,0.00,VWS V14.01,2013-12-21 20:59:00,
2013-12-21 16:00:00,43.5,40.2,29.75,NW,312,0.0,5.0,88,0.01,,OVC039,0.11,0.00,VWS V14.01,2013-12-21 21:00:00,
2013-12-21 16:01:00,43.5,40.2,29.75,NW,312,0.0,5.0,88,0.01,,OVC039,0.11,0.00,VWS V14.01,2013-12-21 21:01:00,
2013-12-21 16:02:00,43.6,40.3,29.75,NW,312,0.0,5.0,88,0.01,,OVC039,0.11,0.00,VWS V14.01,2013-12-21 21:02:00,
2013-12-21 16:03:00,43.6,40.3,29.75,NW,312,0.0,5.0,88,0.01,,OVC039,0.11,0.00,VWS V14.01,2013-12-21 21:03:00,
2013-12-21 16:04:00,43.6,40.6,29.75,NW,312,0.0,1.0,89,0.01,,OVC039,0.11,0.00,VWS V14.01,2013-12-21 21:04:00,
2013-12-21 16:06:00,43.6,40.6,29.75,NW,312,1.0,1.0,89,0.01,,OVC039,0.11,0.00,VWS V14.01,2013-12-21 21:06:00,
2013-12-21 16:07:00,43.6,40.6,29.75,NW,312,0.0,1.0,89,0.01,,OVC039,0.11,0.00,VWS V14.01,2013-12-21 21:07:00,
2013-12-21 16:08:00,43.8,40.8,29.75,NW,312,1.0,1.0,89,0.01,,OVC039,0.11,0.00,VWS V14.01,2013-12-21 21:08:00,
2013-12-21 16:09:00,43.8,40.8,29.75,NW,312,1.0,1.0,89,0.02,,OVC039,0.12,0.00,VWS V14.01,2013-12-21 21:09:00,
2013-12-21 16:11:00,43.8,40.8,29.75,NW,312,1.0,2.0,89,0.02,,OVC039,0.12,0.00,VWS V14.01,2013-12-21 21:11:00,
2013-12-21 16:12:00,43.8,40.8,29.75,NW,312,1.0,2.0,89,0.02,,OVC039,0.12,0.00,VWS V14.01,2013-12-21 21:12:00,
2013-12-21 16:13:00,43.8,40.8,29.75,NW,312,1.0,2.0,89,0.02,,OVC039,0.12,0.00,VWS V14.01,2013-12-21 21:13:00,
2013-12-21 16:14:00,43.8,40.8,29.75,NW,312,1.0,2.0,89,0.02,,OVC039,0.12,0.00,VWS V14.01,2013-12-21 21:14:00,
2013-12-21 16:15:00,43.8,40.8,29.75,NW,309,1.0,2.0,89,0.02,,OVC039,0.12,0.00,VWS V14.01,2013-12-21 21:15:00,
2013-12-21 16:17:00,43.8,41.1,29.75,NNW,336,3.0,3.0,90,0.02,,OVC039,0.12,0.00,VWS V14.01,2013-12-21 21:17:00,
2013-12-21 16:18:00,43.8,41.1,29.76,NW,311,1.0,3.0,90,0.02,,OVC039,0.12,0.00,VWS V14.01,2013-12-21 21:18:00,
2013-12-21 16:19:00,43.8,41.1,29.76,WSW,256,1.0,3.0,90,0.02,,OVC039,0.12,0.00,VWS V14.01,2013-12-21 21:19:00,
2013-12-21 16:20:00,43.8,41.1,29.76,WSW,256,0.0,3.0,90,0.02,,OVC039,0.12,0.00,VWS V14.01,2013-12-21 21:20:00,
2013-12-21 16:22:00,43.8,41.1,29.76,NW,308,1.0,3.0,90,0.02,,OVC039,0.12,0.00,VWS V14.01,2013-12-21 21:22:00,
2013-12-21 16:23:00,43.8,41.3,29.76,WNW,301,1.0,3.0,91,0.02,,OVC039,0.12,0.00,VWS V14.01,2013-12-21 21:23:00,
2013-12-21 16:24:00,43.8,41.3,29.76,WNW,301,2.0,3.0,91,0.02,,OVC039,0.12,0.00,VWS V14.01,2013-12-21 21:24:00,
2013-12-21 16:25:00,43.8,41.3,29.76,West,277,2.0,3.0,91,0.02,,OVC039,0.12,0.00,VWS V14.01,2013-12-21 21:25:00,
2013-12-21 16:26:00,43.8,41.3,29.76,West,277,0.0,3.0,91,0.02,,OVC039,0.12,0.00,VWS V14.01,2013-12-21 21:26:00,
2013-12-21 16:27:00,43.9,41.5,29.76,West,277,1.0,3.0,91,0.02,,OVC039,0.12,0.00,VWS V14.01,2013-12-21 21:27:00,
2013-12-21 16:29:00,43.9,41.5,29.76,WNW,289,2.0,3.0,91,0.02,,OVC039,0.12,0.00,VWS V14.01,2013-12-21 21:29:00,
2013-12-21 16:30:00,43.9,41.5,29.76,WNW,289,1.0,3.0,91,0.02,,OVC039,0.12,0.00,VWS V14.01,2013-12-21 21:30:00,
2013-12-21 16:32:00,43.9,41.7,29.76,NW,304,1.0,3.0,92,0.03,,OVC039,0.13,0.00,VWS V14.01,2013-12-21 21:32:00,
2013-12-21 16:35:00,43.9,41.7,29.76,NW,304,1.0,2.0,92,0.03,,OVC039,0.13,0.00,VWS V14.01,2013-12-21 21:35:00,
2013-12-21 16:36:00,43.9,41.7,29.76,WNW,302,0.0,2.0,92,0.03,,OVC039,0.13,0.00,VWS V14.01,2013-12-21 21:36:00,
2013-12-21 16:38:00,43.9,41.7,29.76,WNW,302,0.0,2.0,92,0.03,,OVC039,0.13,0.00,VWS V14.01,2013-12-21 21:38:00,
2013-12-21 16:40:00,43.9,41.7,29.76,WNW,302,1.0,2.0,92,0.03,,OVC039,0.13,0.00,VWS V14.01,2013-12-21 21:40:00,
2013-12-21 16:41:00,43.9,41.7,29.76,WNW,302,1.0,2.0,92,0.03,,OVC039,0.13,0.00,VWS V14.01,2013-12-21 21:41:00,
2013-12-21 16:43:00,43.9,41.7,29.76,WNW,302,0.0,2.0,92,0.03,,OVC039,0.13,0.00,VWS V14.01,2013-12-21 21:43:00,
2013-12-21 16:44:00,43.9,41.7,29.76,West,261,1.0,2.0,92,0.03,,OVC039,0.13,0.00,VWS V14.01,2013-12-21 21:44:00,
2013-12-21 16:45:00,43.9,41.7,29.76,West,261,0.0,2.0,92,0.03,,OVC039,0.13,0.00,VWS V14.01,2013-12-21 21:45:00,
2013-12-21 16:46:00,43.9,41.7,29.76,West,261,0.0,2.0,92,0.03,,OVC039,0.13,0.00,VWS V14.01,2013-12-21 21:46:00,
2013-12-21 16:47:00,43.9,41.7,29.76,WNW,301,0.0,2.0,92,0.03,,OVC039,0.13,0.00,VWS V14.01,2013-12-21 21:47:00,
2013-12-21 16:48:00,43.9,41.7,29.77,WNW,301,1.0,2.0,92,0.03,,OVC039,0.13,0.00,VWS V14.01,2013-12-21 21:48:00,
2013-12-21 16:49:00,43.9,41.7,29.77,WNW,301,0.0,2.0,92,0.03,,OVC039,0.13,0.00,VWS V14.01,2013-12-21 21:49:00,
2013-12-21 16:51:00,43.9,41.7,29.77,WNW,301,2.0,2.0,92,0.03,,OVC039,0.13,0.00,VWS V14.01,2013-12-21 21:51:00,
2013-12-21 16:52:00,43.9,41.7,29.77,WNW,301,1.0,2.0,92,0.03,,OVC039,0.13,0.00,VWS V14.01,2013-12-21 21:52:00,
2013-12-21 16:53:00,43.9,41.7,29.77,WNW,294,1.0,2.0,92,0.03,,OVC039,0.13,0.00,VWS V14.01,2013-12-21 21:53:00,
2013-12-21 16:54:00,43.8,41.6,29.77,WNW,287,1.0,2.0,92,0.03,,OVC039,0.13,0.00,VWS V14.01,2013-12-21 21:54:00,
2013-12-21 16:56:00,43.8,41.6,29.77,NW,312,2.0,2.0,92,0.03,,OVC039,0.13,0.00,VWS V14.01,2013-12-21 21:56:00,
2013-12-21 16:57:00,43.8,41.6,29.77,WNW,296,1.0,2.0,92,0.03,,OVC039,0.13,0.00,VWS V14.01,2013-12-21 21:57:00,
2013-12-21 16:58:00,43.8,41.6,29.77,WNW,301,1.0,2.0,92,0.04,,OVC039,0.14,0.00,VWS V14.01,2013-12-21 21:58:00,
2013-12-21 16:59:00,43.8,41.6,29.77,WNW,301,0.0,2.0,92,0.04,,OVC039,0.14,0.00,VWS V14.01,2013-12-21 21:59:00,
2013-12-21 17:00:00,43.9,42.0,29.76,NNW,332,2.0,2.0,93,0.04,,,0.14,0.00,VWS V15.00,2013-12-21 22:00:00,
2013-12-21 17:01:00,43.9,42.0,29.77,NNW,330,2.0,2.0,93,0.04,,OVC033,0.14,0.00,VWS V14.01,2013-12-21 22:01:00,
2013-12-21 17:02:00,43.9,42.0,29.76,NNW,332,2.0,2.0,93,0.04,,OVC033,0.14,0.00,VWS V14.01,2013-12-21 22:02:00,
2013-12-21 17:03:00,43.9,42.0,29.76,NNW,335,1.0,2.0,93,0.03,,OVC033,0.14,0.00,VWS V14.01,2013-12-21 22:03:00,
2013-12-21 17:05:00,43.9,42.0,29.76,NNW,343,3.0,3.0,93,0.03,,OVC033,0.14,0.00,VWS V14.01,2013-12-21 22:05:00,
2013-12-21 17:06:00,43.9,42.0,29.76,NNW,343,1.0,3.0,93,0.03,,OVC033,0.14,0.00,VWS V14.01,2013-12-21 22:06:00,
2013-12-21 17:07:00,43.9,42.0,29.76,NNW,343,1.0,3.0,93,0.03,,OVC033,0.14,0.00,VWS V14.01,2013-12-21 22:07:00,
2013-12-21 17:08:00,43.9,42.0,29.76,NW,323,1.0,3.0,93,0.03,,OVC033,0.14,0.00,VWS V14.01,2013-12-21 22:08:00,
2013-12-21 17:09:00,43.9,42.0,29.76,NW,323,1.0,3.0,93,0.03,,OVC033,0.14,0.00,VWS V14.01,2013-12-21 22:09:00,
2013-12-21 17:10:00,43.9,42.0,29.76,NW,306,0.0,3.0,93,0.03,,OVC033,0.14,0.00,VWS V14.01,2013-12-21 22:10:00,
2013-12-21 17:12:00,43.9,42.0,29.76,NW,306,1.0,3.0,93,0.03,,OVC033,0.14,0.00,VWS V14.01,2013-12-21 22:12:00,
2013-12-21 17:13:00,43.9,42.0,29.76,NW,306,1.0,3.0,93,0.03,,OVC033,0.14,0.00,VWS V14.01,2013-12-21 22:13:00,
2013-12-21 17:14:00,43.9,42.0,29.76,NW,306,0.0,3.0,93,0.03,,OVC033,0.14,0.00,VWS V14.01,2013-12-21 22:14:00,
2013-12-21 17:15:00,43.9,42.0,29.76,NW,306,0.0,3.0,93,0.03,,OVC033,0.14,0.00,VWS V14.01,2013-12-21 22:15:00,
2013-12-21 17:16:00,43.9,42.3,29.76,NW,306,1.0,3.0,94,0.03,,OVC033,0.14,0.00,VWS V14.01,2013-12-21 22:16:00,
2013-12-21 17:17:00,43.9,42.3,29.77,NW,306,0.0,3.0,94,0.03,,OVC033,0.14,0.00,VWS V14.01,2013-12-21 22:17:00,
2013-12-21 17:18:00,43.9,42.3,29.77,NW,306,0.0,3.0,94,0.03,,OVC033,0.14,0.00,VWS V14.01,2013-12-21 22:18:00,
2013-12-21 17:19:00,43.9,42.3,29.77,NW,306,0.0,3.0,94,0.03,,OVC033,0.14,0.00,VWS V14.01,2013-12-21 22:19:00,
2013-12-21 17:20:00,43.9,42.3,29.77,NW,306,0.0,3.0,94,0.03,,OVC033,0.14,0.00,VWS V14.01,2013-12-21 22:20:00,
2013-12-21 17:21:00,43.9,42.3,29.77,NW,306,1.0,3.0,94,0.03,,OVC033,0.14,0.00,VWS V14.01,2013-12-21 22:21:00,
2013-12-21 17:22:00,43.9,42.3,29.77,NW,306,0.0,3.0,94,0.03,,OVC033,0.14,0.00,VWS V14.01,2013-12-21 22:22:00,
2013-12-21 17:23:00,43.9,42.3,29.77,NW,306,1.0,3.0,94,0.03,,OVC033,0.14,0.00,VWS V14.01,2013-12-21 22:23:00,
2013-12-21 17:25:00,43.9,42.3,29.77,NW,306,1.0,3.0,94,0.03,,OVC033,0.14,0.00,VWS V14.01,2013-12-21 22:25:00,
2013-12-21 17:26:00,43.9,42.3,29.77,NW,306,0.0,3.0,94,0.03,,OVC033,0.14,0.00,VWS V14.01,2013-12-21 22:26:00,
2013-12-21 17:27:00,43.9,42.3,29.77,NW,306,0.0,3.0,94,0.03,,OVC033,0.14,0.00,VWS V14.01,2013-12-21 22:27:00,
2013-12-21 17:28:00,43.9,42.3,29.77,NW,306,0.0,3.0,94,0.03,,OVC033,0.14,0.00,VWS V14.01,2013-12-21 22:28:00,
2013-12-21 17:30:00,43.9,42.3,29.77,NW,306,0.0,3.0,94,0.03,,OVC033,0.14,0.00,VWS V14.01,2013-12-21 22:30:00,
2013-12-21 17:31:00,43.9,42.3,29.77,NW,306,0.0,3.0,94,0.03,,OVC033,0.14,0.00,VWS V14.01,2013-12-21 22:31:00,
2013-12-21 17:32:00,43.9,42.3,29.77,NW,306,1.0,3.0,94,0.03,,OVC033,0.14,0.00,VWS V14.01,2013-12-21 22:32:00,
2013-12-21 17:33:00,43.9,42.3,29.77,NW,306,1.0,1.0,94,0.01,,OVC033,0.14,0.00,VWS V14.01,2013-12-21 22:33:00,
2013-12-21 17:35:00,43.9,42.3,29.77,NW,306,0.0,1.0,94,0.01,,OVC033,0.14,0.00,VWS V14.01,2013-12-21 22:35:00,
2013-12-21 17:36:00,43.9,42.3,29.77,NW,306,0.0,1.0,94,0.01,,OVC033,0.14,0.00,VWS V14.01,2013-12-21 22:36:00,
2013-12-21 17:37:00,43.9,42.3,29.77,NW,306,0.0,1.0,94,0.01,,OVC033,0.14,0.00,VWS V14.01,2013-12-21 22:37:00,
2013-12-21 17:38:00,43.9,42.3,29.77,NW,306,0.0,1.0,94,0.01,,OVC033,0.14,0.00,VWS V14.01,2013-12-21 22:38:00,
2013-12-21 17:40:00,43.9,42.6,29.77,NW,306,0.0,1.0,95,0.01,,OVC033,0.14,0.00,VWS V14.01,2013-12-21 22:40:00,
2013-12-21 17:41:00,44.1,42.8,29.77,NW,306,0.0,1.0,95,0.01,,OVC033,0.14,0.00,VWS V14.01,2013-12-21 22:41:00,
2013-12-21 17:42:00,44.1,42.8,29.77,NW,306,0.0,1.0,95,0.01,,OVC033,0.14,0.00,VWS V14.01,2013-12-21 22:42:00,
2013-12-21 17:43:00,44.1,42.8,29.77,NW,306,0.0,1.0,95,0.01,,OVC033,0.14,0.00,VWS V14.01,2013-12-21 22:43:00,
2013-12-21 17:44:00,44.1,42.8,29.77,NW,306,0.0,1.0,95,0.01,,OVC033,0.14,0.00,VWS V14.01,2013-12-21 22:44:00,
2013-12-21 17:45:00,44.1,42.8,29.77,NW,306,0.0,1.0,95,0.01,,OVC033,0.14,0.00,VWS V14.01,2013-12-21 22:45:00,
2013-12-21 17:46:00,44.1,42.8,29.77,NW,306,0.0,1.0,95,0.01,,OVC033,0.14,0.00,VWS V14.01,2013-12-21 22:46:00,
2013-12-21 17:48:00,44.1,42.8,29.78,NW,306,0.0,1.0,95,0.01,,OVC033,0.14,0.00,VWS V14.01,2013-12-21 22:48:00,
2013-12-21 17:50:00,44.1,42.8,29.78,NW,306,0.0,1.0,95,0.01,,OVC033,0.14,0.00,VWS V14.01,2013-12-21 22:50:00,
2013-12-21 17:51:00,44.1,42.8,29.78,NW,306,1.0,1.0,95,0.01,,OVC033,0.14,0.00,VWS V14.01,2013-12-21 22:51:00,
2013-12-21 17:53:00,44.1,42.8,29.78,NW,306,1.0,1.0,95,0.01,,OVC033,0.14,0.00,VWS V14.01,2013-12-21 22:53:00,
2013-12-21 17:55:00,44.1,42.8,29.78,NW,306,2.0,2.0,95,0.01,,OVC033,0.14,0.00,VWS V14.01,2013-12-21 22:55:00,
2013-12-21 17:56:00,44.1,42.8,29.78,NW,306,2.0,2.0,95,0.01,,OVC033,0.14,0.00,VWS V14.01,2013-12-21 22:56:00,
2013-12-21 17:57:00,43.9,42.6,29.78,NW,306,1.0,2.0,95,0.02,,OVC033,0.15,0.00,VWS V14.01,2013-12-21 22:57:00,
2013-12-21 17:58:00,43.9,42.3,29.78,NW,313,2.0,2.0,94,0.02,,OVC033,0.15,0.00,VWS V14.01,2013-12-21 22:58:00,
2013-12-21 18:00:00,43.8,42.5,29.78,WNW,299,0.0,2.0,95,0.02,,OVC028,0.15,0.00,VWS V14.01,2013-12-21 23:00:00,
2013-12-21 18:01:00,43.8,42.2,29.78,WNW,299,1.0,2.0,94,0.02,,OVC028,0.15,0.00,VWS V14.01,2013-12-21 23:01:00,
2013-12-21 18:02:00,43.6,42.3,29.80,WNW,299,0.0,2.0,95,0.02,,OVC028,0.15,0.00,VWS V14.01,2013-12-21 23:02:00,
2013-12-21 18:03:00,43.6,42.3,29.80,WNW,299,1.0,2.0,95,0.02,,OVC028,0.15,0.00,VWS V14.01,2013-12-21 23:03:00,
2013-12-21 18:04:00,43.6,42.3,29.80,WNW,294,1.0,1.0,95,0.01,,OVC028,0.15,0.00,VWS V14.01,2013-12-21 23:04:00,
2013-12-21 18:05:00,43.6,42.3,29.80,WNW,284,0.0,2.0,95,0.01,,OVC028,0.15,0.00,VWS V14.01,2013-12-21 23:05:00,
2013-12-21 18:07:00,43.5,42.2,29.80,WNW,284,0.0,2.0,95,0.01,,OVC028,0.15,0.00,VWS V14.01,2013-12-21 23:07:00,
2013-12-21 18:08:00,43.5,42.2,29.80,WNW,284,0.0,2.0,95,0.01,,OVC028,0.15,0.00,VWS V14.01,2013-12-21 23:08:00,
2013-12-21 18:09:00,43.5,42.2,29.80,WNW,284,0.0,2.0,95,0.01,,OVC028,0.15,0.00,VWS V14.01,2013-12-21 23:09:00,
2013-12-21 18:11:00,43.5,42.2,29.80,WNW,284,0.0,2.0,95,0.01,,OVC028,0.15,0.00,VWS V14.01,2013-12-21 23:11:00,
2013-12-21 18:12:00,43.5,42.2,29.80,WNW,284,0.0,2.0,95,0.01,,OVC028,0.15,0.00,VWS V14.01,2013-12-21 23:12:00,
2013-12-21 18:13:00,43.3,42.0,29.80,WNW,284,0.0,2.0,95,0.02,,OVC028,0.16,0.00,VWS V14.01,2013-12-21 23:13:00,
2013-12-21 18:14:00,43.3,42.0,29.80,NW,305,1.0,2.0,95,0.02,,OVC028,0.16,0.00,VWS V14.01,2013-12-21 23:14:00,
2013-12-21 18:17:00,43.3,42.0,29.80,SSE,150,1.0,2.0,95,0.02,,OVC028,0.16,0.00,VWS V14.01,2013-12-21 23:17:00,
2013-12-21 18:18:00,43.3,42.0,29.79,SSE,151,1.0,2.0,95,0.02,,OVC028,0.16,0.00,VWS V14.01,2013-12-21 23:18:00,
2013-12-21 18:20:00,43.3,42.0,29.79,WNW,282,0.0,2.0,95,0.02,,OVC028,0.16,0.00,VWS V14.01,2013-12-21 23:20:00,
2013-12-21 18:22:00,43.3,42.0,29.79,WNW,282,0.0,2.0,95,0.02,,OVC028,0.16,0.00,VWS V14.01,2013-12-21 23:22:00,
2013-12-21 18:23:00,43.3,42.0,29.79,WNW,282,0.0,2.0,95,0.02,,OVC028,0.16,0.00,VWS V14.01,2013-12-21 23:23:00,
2013-12-21 18:24:00,43.3,42.0,29.79,WNW,282,1.0,2.0,95,0.02,,OVC028,0.16,0.00,VWS V14.01,2013-12-21 23:24:00,
2013-12-21 18:25:00,43.3,42.0,29.79,WNW,282,0.0,2.0,95,0.02,,OVC028,0.16,0.00,VWS V14.01,2013-12-21 23:25:00,
2013-12-21 18:28:00,43.3,42.0,29.79,NW,308,0.0,2.0,95,0.02,,OVC028,0.16,0.00,VWS V14.01,2013-12-21 23:28:00,
2013-12-21 18:29:00,43.3,42.0,29.79,NW,308,0.0,2.0,95,0.02,,OVC028,0.16,0.00,VWS V14.01,2013-12-21 23:29:00,
2013-12-21 18:30:00,43.3,42.0,29.79,NW,308,0.0,2.0,95,0.02,,OVC028,0.16,0.00,VWS V14.01,2013-12-21 23:30:00,
2013-12-21 18:33:00,43.3,42.2,29.79,NW,308,0.0,2.0,96,0.02,,OVC028,0.16,0.00,VWS V14.01,2013-12-21 23:33:00,
2013-12-21 18:35:00,43.3,42.2,29.79,WNW,287,1.0,1.0,96,0.02,,OVC028,0.16,0.00,VWS V14.01,2013-12-21 23:35:00,
2013-12-21 18:37:00,43.5,42.4,29.79,WNW,287,0.0,1.0,96,0.02,,OVC028,0.16,0.00,VWS V14.01,2013-12-21 23:37:00,
2013-12-21 18:38:00,43.5,42.4,29.79,SSE,154,2.0,3.0,96,0.02,,OVC028,0.16,0.00,VWS V14.01,2013-12-21 23:38:00,
2013-12-21 18:39:00,43.5,42.4,29.79,SSE,154,1.0,3.0,96,0.02,,OVC028,0.16,0.00,VWS V14.01,2013-12-21 23:39:00,
2013-12-21 18:40:00,43.5,42.4,29.79,SSE,154,0.0,3.0,96,0.02,,OVC028,0.16,0.00,VWS V14.01,2013-12-21 23:40:00,
2013-12-21 18:42:00,43.5,42.4,29.79,SW,232,2.0,3.0,96,0.02,,OVC028,0.16,0.00,VWS V14.01,2013-12-21 23:42:00,
2013-12-21 18:44:00,43.5,42.4,29.79,SSW,205,1.0,4.0,96,0.02,,OVC028,0.16,0.00,VWS V14.01,2013-12-21 23:44:00,
2013-12-21 18:45:00,43.5,42.4,29.79,SSW,205,0.0,4.0,96,0.02,,OVC028,0.16,0.00,VWS V14.01,2013-12-21 23:45:00,
2013-12-21 18:46:00,43.5,42.4,29.79,SSW,205,2.0,4.0,96,0.02,,OVC028,0.16,0.00,VWS V14.01,2013-12-21 23:46:00,
2013-12-21 18:47:00,43.6,42.5,29.79,WSW,244,1.0,4.0,96,0.02,,OVC028,0.16,0.00,VWS V14.01,2013-12-21 23:47:00,
2013-12-21 18:49:00,43.6,42.5,29.78,SW,233,1.0,4.0,96,0.02,,OVC028,0.16,0.00,VWS V14.01,2013-12-21 23:49:00,
2013-12-21 18:50:00,43.6,42.5,29.78,SW,233,2.0,4.0,96,0.02,,OVC028,0.16,0.00,VWS V14.01,2013-12-21 23:50:00,
2013-12-21 18:51:00,43.6,42.5,29.78,SW,233,2.0,4.0,96,0.02,,OVC028,0.16,0.00,VWS V14.01,2013-12-21 23:51:00,
2013-12-21 18:52:00,43.6,42.5,29.78,SW,233,2.0,4.0,96,0.02,,OVC028,0.16,0.00,VWS V14.01,2013-12-21 23:52:00,
2013-12-21 18:54:00,43.6,42.5,29.78,West,260,1.0,4.0,96,0.02,,OVC028,0.16,0.00,VWS V14.01,2013-12-21 23:54:00,
2013-12-21 18:56:00,43.6,42.5,29.78,SW,226,1.0,4.0,96,0.02,,OVC028,0.16,0.00,VWS V14.01,2013-12-21 23:56:00,
2013-12-21 18:57:00,43.5,42.4,29.78,SW,230,2.0,4.0,96,0.02,,OVC028,0.16,0.00,VWS V14.01,2013-12-21 23:57:00,
2013-12-21 19:00:00,43.6,42.5,29.78,WSW,237,0.0,4.0,96,0.02,,BKN009,0.16,0.00,VWS V14.01,2013-12-22 00:00:00,
2013-12-21 19:01:00,43.6,42.5,29.78,WSW,246,1.0,4.0,96,0.02,,BKN009,0.16,0.00,VWS V14.01,2013-12-22 00:01:00,
2013-12-21 19:03:00,43.6,42.5,29.78,WSW,246,1.0,4.0,96,0.02,,BKN009,0.16,0.00,VWS V14.01,2013-12-22 00:03:00,
2013-12-21 19:05:00,43.6,42.5,29.78,WSW,239,2.0,2.0,96,0.01,,BKN009,0.16,0.00,VWS V14.01,2013-12-22 00:05:00,
2013-12-21 19:06:00,43.6,42.5,29.78,WSW,239,1.0,2.0,96,0.01,,BKN009,0.16,0.00,VWS V14.01,2013-12-22 00:06:00,
2013-12-21 19:07:00,43.8,42.7,29.78,West,275,0.0,3.0,96,0.01,,BKN009,0.16,0.00,VWS V14.01,2013-12-22 00:07:00,
2013-12-21 19:08:00,43.8,42.7,29.78,West,275,0.0,3.0,96,0.01,,BKN009,0.16,0.00,VWS V14.01,2013-12-22 00:08:00,
2013-12-21 19:11:00,43.8,42.7,29.78,West,275,1.0,3.0,96,0.01,,BKN009,0.16,0.00,VWS V14.01,2013-12-22 00:11:00,
2013-12-21 19:12:00,43.8,42.7,29.78,West,275,1.0,3.0,96,0.01,,BKN009,0.16,0.00,VWS V14.01,2013-12-22 00:12:00,
2013-12-21 19:13:00,43.8,42.7,29.78,West,275,0.0,3.0,96,0.01,,BKN009,0.16,0.00,VWS V14.01,2013-12-22 00:13:00,
2013-12-21 19:16:00,43.9,42.8,29.78,West,275,1.0,3.0,96,0.01,,BKN009,0.16,0.00,VWS V14.01,2013-12-22 00:16:00,
2013-12-21 19:17:00,43.9,42.8,29.78,West,275,2.0,3.0,96,0.01,,BKN009,0.16,0.00,VWS V14.01,2013-12-22 00:17:00,
2013-12-21 19:18:00,43.9,42.8,29.78,West,275,1.0,3.0,96,0.01,,BKN009,0.16,0.00,VWS V14.01,2013-12-22 00:18:00,
2013-12-21 19:19:00,43.9,42.8,29.78,West,275,1.0,3.0,96,0.01,,BKN009,0.16,0.00,VWS V14.01,2013-12-22 00:19:00,
2013-12-21 19:21:00,43.9,42.8,29.78,West,275,0.0,3.0,96,0.01,,BKN009,0.16,0.00,VWS V14.01,2013-12-22 00:21:00,
2013-12-21 19:23:00,43.9,42.8,29.78,West,275,1.0,3.0,96,0.01,,BKN009,0.16,0.00,VWS V14.01,2013-12-22 00:23:00,
2013-12-21 19:24:00,44.1,43.0,29.78,West,275,1.0,3.0,96,0.01,,BKN009,0.16,0.00,VWS V14.01,2013-12-22 00:24:00,
2013-12-21 19:25:00,44.1,43.0,29.78,West,275,0.0,3.0,96,0.01,,BKN009,0.16,0.00,VWS V14.01,2013-12-22 00:25:00,
2013-12-21 19:26:00,44.1,43.0,29.78,West,275,0.0,3.0,96,0.01,,BKN009,0.16,0.00,VWS V14.01,2013-12-22 00:26:00,
2013-12-21 19:28:00,44.1,43.0,29.78,West,275,0.0,3.0,96,0.01,,BKN009,0.16,0.00,VWS V14.01,2013-12-22 00:28:00,
2013-12-21 19:29:00,44.1,43.0,29.78,West,275,0.0,3.0,96,0.01,,BKN009,0.16,0.00,VWS V14.01,2013-12-22 00:29:00,
2013-12-21 19:30:00,44.1,43.0,29.78,West,275,0.0,3.0,96,0.01,,,0.16,0.00,VWS V15.00,2013-12-22 00:30:00,
2013-12-21 19:31:00,44.1,43.0,29.78,West,275,0.0,3.0,96,0.01,,BKN009,0.16,0.00,VWS V14.01,2013-12-22 00:31:00,
2013-12-21 19:32:00,44.1,43.0,29.78,West,275,0.0,3.0,96,0.01,,BKN009,0.16,0.00,VWS V14.01,2013-12-22 00:32:00,
2013-12-21 19:34:00,44.1,43.0,29.78,West,275,0.0,0.0,96,0.00,,BKN009,0.16,0.00,VWS V14.01,2013-12-22 00:34:00,
2013-12-21 19:36:00,44.1,43.0,29.78,WNW,285,2.0,2.0,96,0.00,,BKN009,0.16,0.00,VWS V14.01,2013-12-22 00:36:00,
2013-12-21 19:38:00,44.2,43.1,29.78,WNW,285,0.0,2.0,96,0.00,,BKN009,0.16,0.00,VWS V14.01,2013-12-22 00:38:00,
2013-12-21 19:39:00,44.2,43.1,29.78,WNW,285,1.0,2.0,96,0.00,,BKN009,0.16,0.00,VWS V14.01,2013-12-22 00:39:00,
2013-12-21 19:40:00,44.2,43.1,29.78,WNW,285,1.0,2.0,96,0.00,,BKN009,0.16,0.00,VWS V14.01,2013-12-22 00:40:00,
2013-12-21 19:42:00,44.2,43.1,29.78,WNW,285,0.0,2.0,96,0.00,,BKN009,0.16,0.00,VWS V14.01,2013-12-22 00:42:00,
2013-12-21 19:43:00,44.2,43.1,29.78,WNW,285,0.0,2.0,96,0.00,,BKN009,0.16,0.00,VWS V14.01,2013-12-22 00:43:00,
2013-12-21 19:44:00,44.2,43.1,29.78,NW,305,2.0,2.0,96,0.00,,BKN009,0.16,0.00,VWS V14.01,2013-12-22 00:44:00,
2013-12-21 19:45:00,44.2,43.1,29.78,NW,305,1.0,2.0,96,0.00,,BKN009,0.16,0.00,VWS V14.01,2013-12-22 00:45:00,
2013-12-21 19:47:00,44.2,43.1,29.79,WNW,302,0.0,3.0,96,0.00,,BKN009,0.16,0.00,VWS V14.01,2013-12-22 00:47:00,
2013-12-21 19:48:00,44.3,43.2,29.79,WNW,302,1.0,3.0,96,0.00,,BKN009,0.16,0.00,VWS V14.01,2013-12-22 00:48:00,
2013-12-21 19:50:00,44.3,43.2,29.79,NW,305,0.0,3.0,96,0.00,,BKN009,0.16,0.00,VWS V14.01,2013-12-22 00:50:00,
2013-12-21 19:52:00,44.3,43.2,29.79,WNW,294,0.0,3.0,96,0.00,,BKN009,0.16,0.00,VWS V14.01,2013-12-22 00:52:00,
2013-12-21 19:53:00,44.3,43.2,29.79,WNW,294,1.0,3.0,96,0.00,,BKN009,0.16,0.00,VWS V14.01,2013-12-22 00:53:00,
2013-12-21 19:54:00,44.3,43.2,29.79,NW,312,3.0,3.0,96,0.00,,BKN009,0.16,0.00,VWS V14.01,2013-12-22 00:54:00,
2013-12-21 19:55:00,44.3,43.2,29.79,WNW,292,2.0,3.0,96,0.00,,BKN009,0.16,0.00,VWS V14.01,2013-12-22 00:55:00,
2013-12-21 19:57:00,44.3,43.2,29.79,WNW,292,1.0,3.0,96,0.00,,BKN009,0.16,0.00,VWS V14.01,2013-12-22 00:57:00,
2013-12-21 19:58:00,44.3,43.2,29.79,WNW,302,3.0,3.0,96,0.00,,BKN009,0.16,0.00,VWS V14.01,2013-12-22 00:58:00,
2013-12-21 19:59:00,44.3,43.2,29.79,WNW,302,1.0,3.0,96,0.00,,BKN009,0.16,0.00,VWS V14.01,2013-12-22 00:59:00,
2013-12-21 20:00:00,44.3,43.2,29.79,WNW,302,1.0,3.0,96,0.00,,BKN009,0.16,0.00,VWS V14.01,2013-12-22 01:00:00,
2013-12-21 20:01:00,44.3,43.2,29.79,WNW,302,1.0,3.0,96,0.00,,OVC005,0.16,0.00,VWS V14.01,2013-12-22 01:01:00,
2013-12-21 20:03:00,44.3,43.5,29.80,NW,325,1.0,3.0,97,0.00,,OVC005,0.16,0.00,VWS V14.01,2013-12-22 01:03:00,
2013-12-21 20:04:00,44.3,43.5,29.80,NW,325,1.0,2.0,97,0.00,,OVC005,0.16,0.00,VWS V14.01,2013-12-22 01:04:00,
2013-12-21 20:05:00,44.3,43.5,29.80,NW,325,0.0,2.0,97,0.00,,OVC005,0.16,0.00,VWS V14.01,2013-12-22 01:05:00,
2013-12-21 20:06:00,44.5,43.7,29.80,NW,325,0.0,2.0,97,0.00,,OVC005,0.16,0.00,VWS V14.01,2013-12-22 01:06:00,
2013-12-21 20:08:00,44.5,43.7,29.80,NW,308,1.0,2.0,97,0.00,,OVC005,0.16,0.00,VWS V14.01,2013-12-22 01:08:00,
2013-12-21 20:10:00,44.5,43.7,29.80,West,278,1.0,2.0,97,0.00,,OVC005,0.16,0.00,VWS V14.01,2013-12-22 01:10:00,
2013-12-21 20:11:00,44.5,43.7,29.80,West,278,0.0,2.0,97,0.00,,OVC005,0.16,0.00,VWS V14.01,2013-12-22 01:11:00,
2013-12-21 20:12:00,44.5,43.7,29.80,WNW,299,0.0,2.0,97,0.00,,OVC005,0.16,0.00,VWS V14.01,2013-12-22 01:12:00,
2013-12-21 20:13:00,44.5,43.7,29.80,WNW,299,0.0,2.0,97,0.00,,OVC005,0.16,0.00,VWS V14.01,2013-12-22 01:13:00,
2013-12-21 20:14:00,44.5,43.7,29.80,WNW,299,1.0,2.0,97,0.00,,OVC005,0.16,0.00,VWS V14.01,2013-12-22 01:14:00,
2013-12-21 20:15:00,44.5,43.7,29.80,WNW,299,1.0,2.0,97,0.00,,OVC005,0.16,0.00,VWS V14.01,2013-12-22 01:15:00,
2013-12-21 20:17:00,44.6,43.8,29.80,WNW,299,0.0,2.0,97,0.00,,OVC005,0.16,0.00,VWS V14.01,2013-12-22 01:17:00,
2013-12-21 20:19:00,44.6,43.8,29.79,WNW,299,0.0,2.0,97,0.00,,OVC005,0.16,0.00,VWS V14.01,2013-12-22 01:19:00,
2013-12-21 20:21:00,44.6,43.8,29.79,WNW,301,0.0,2.0,97,0.00,,OVC005,0.16,0.00,VWS V14.01,2013-12-22 01:21:00,
2013-12-21 20:22:00,44.6,43.8,29.79,WNW,299,0.0,2.0,97,0.00,,OVC005,0.16,0.00,VWS V14.01,2013-12-22 01:22:00,
2013-12-21 20:23:00,44.6,43.8,29.79,WNW,299,0.0,2.0,97,0.00,,OVC005,0.16,0.00,VWS V14.01,2013-12-22 01:23:00,
2013-12-21 20:24:00,44.6,43.8,29.79,WNW,299,0.0,2.0,97,0.00,,OVC005,0.16,0.00,VWS V14.01,2013-12-22 01:24:00,
2013-12-21 20:25:00,44.6,43.8,29.79,WNW,291,2.0,2.0,97,0.00,,OVC005,0.16,0.00,VWS V14.01,2013-12-22 01:25:00,
2013-12-21 20:26:00,44.6,43.8,29.79,WNW,291,0.0,2.0,97,0.00,,OVC005,0.16,0.00,VWS V14.01,2013-12-22 01:26:00,
2013-12-21 20:28:00,44.6,43.8,29.79,West,272,1.0,2.0,97,0.00,,OVC005,0.16,0.00,VWS V14.01,2013-12-22 01:28:00,
2013-12-21 20:29:00,44.6,43.8,29.79,West,272,1.0,2.0,97,0.00,,OVC005,0.16,0.00,VWS V14.01,2013-12-22 01:29:00,
2013-12-21 20:30:00,44.6,43.8,29.79,West,261,0.0,2.0,97,0.00,,OVC005,0.16,0.00,VWS V14.01,2013-12-22 01:30:00,
2013-12-21 20:32:00,44.5,43.7,29.79,West,261,1.0,2.0,97,0.00,,OVC005,0.16,0.00,VWS V14.01,2013-12-22 01:32:00,
2013-12-21 20:33:00,44.5,43.7,29.79,West,261,0.0,1.0,97,0.00,,OVC005,0.16,0.00,VWS V14.01,2013-12-22 01:33:00,
2013-12-21 20:35:00,44.5,43.7,29.79,West,261,0.0,1.0,97,0.00,,OVC005,0.16,0.00,VWS V14.01,2013-12-22 01:35:00,
2013-12-21 20:36:00,44.5,43.7,29.79,West,261,0.0,1.0,97,0.00,,OVC005,0.16,0.00,VWS V14.01,2013-12-22 01:36:00,
2013-12-21 20:38:00,44.5,43.7,29.79,West,261,0.0,1.0,97,0.00,,OVC005,0.16,0.00,VWS V14.01,2013-12-22 01:38:00,
2013-12-21 20:39:00,44.5,43.7,29.79,West,261,0.0,1.0,97,0.00,,OVC005,0.16,0.00,VWS V14.01,2013-12-22 01:39:00,
2013-12-21 20:40:00,44.5,43.7,29.79,West,261,0.0,1.0,97,0.00,,OVC005,0.16,0.00,VWS V14.01,2013-12-22 01:40:00,
2013-12-21 20:41:00,44.5,43.7,29.79,West,261,0.0,1.0,97,0.00,,OVC005,0.16,0.00,VWS V14.01,2013-12-22 01:41:00,
2013-12-21 20:44:00,44.5,43.7,29.79,West,261,0.0,1.0,97,0.00,,OVC005,0.16,0.00,VWS V14.01,2013-12-22 01:44:00,
2013-12-21 20:45:00,44.5,43.7,29.79,West,261,1.0,1.0,97,0.00,,OVC005,0.16,0.00,VWS V14.01,2013-12-22 01:45:00,
2013-12-21 20:46:00,44.5,43.7,29.79,West,261,0.0,1.0,97,0.00,,OVC005,0.16,0.00,VWS V14.01,2013-12-22 01:46:00,
2013-12-21 20:48:00,44.3,43.5,29.80,West,261,0.0,1.0,97,0.00,,OVC005,0.16,0.00,VWS V14.01,2013-12-22 01:48:00,
2013-12-21 20:49:00,44.3,43.5,29.80,NNW,328,2.0,2.0,97,0.00,,OVC005,0.16,0.00,VWS V14.01,2013-12-22 01:49:00,
2013-12-21 20:51:00,44.3,43.5,29.80,NW,325,1.0,2.0,97,0.00,,OVC005,0.16,0.00,VWS V14.01,2013-12-22 01:51:00,
2013-12-21 20:52:00,44.3,43.5,29.80,NW,325,0.0,2.0,97,0.00,,OVC005,0.16,0.00,VWS V14.01,2013-12-22 01:52:00,
2013-12-21 20:53:00,44.3,43.5,29.80,NW,325,0.0,2.0,97,0.00,,OVC005,0.16,0.00,VWS V14.01,2013-12-22 01:53:00,
2013-12-21 20:55:00,44.3,43.5,29.80,NNW,328,1.0,2.0,97,0.00,,OVC005,0.16,0.00,VWS V14.01,2013-12-22 01:55:00,
2013-12-21 20:56:00,44.3,43.5,29.80,NNW,328,1.0,2.0,97,0.00,,OVC005,0.16,0.00,VWS V14.01,2013-12-22 01:56:00,
2013-12-21 20:57:00,44.3,43.5,29.80,NNW,328,0.0,2.0,97,0.00,,OVC005,0.16,0.00,VWS V14.01,2013-12-22 01:57:00,
2013-12-21 20:58:00,44.3,43.5,29.80,NNW,328,1.0,2.0,97,0.00,,OVC005,0.16,0.00,VWS V14.01,2013-12-22 01:58:00,
2013-12-21 20:59:00,44.3,43.5,29.80,NNW,328,0.0,2.0,97,0.00,,OVC005,0.16,0.00,VWS V14.01,2013-12-22 01:59:00,
2013-12-21 21:00:00,44.3,43.5,29.80,NNW,328,0.0,2.0,97,0.00,,OVC005,0.16,0.00,VWS V14.01,2013-12-22 02:00:00,
2013-12-21 21:01:00,44.3,43.5,29.80,NNW,328,0.0,2.0,97,0.00,,BKN033,0.16,0.00,VWS V14.01,2013-12-22 02:01:00,
2013-12-21 21:02:00,44.3,43.5,29.80,NNW,328,0.0,2.0,97,0.00,,BKN033,0.16,0.00,VWS V14.01,2013-12-22 02:02:00,
2013-12-21 21:03:00,44.3,43.5,29.80,NNW,328,1.0,2.0,97,0.00,,BKN033,0.16,0.00,VWS V14.01,2013-12-22 02:03:00,
2013-12-21 21:05:00,44.3,43.5,29.80,NNW,328,0.0,1.0,97,0.00,,BKN033,0.16,0.00,VWS V14.01,2013-12-22 02:05:00,
2013-12-21 21:07:00,44.3,43.5,29.80,NNW,328,0.0,1.0,97,0.00,,BKN033,0.16,0.00,VWS V14.01,2013-12-22 02:07:00,
2013-12-21 21:08:00,44.3,43.5,29.80,NNW,328,0.0,1.0,97,0.00,,BKN033,0.16,0.00,VWS V14.01,2013-12-22 02:08:00,
2013-12-21 21:11:00,44.5,43.7,29.80,NNW,328,0.0,1.0,97,0.00,,BKN033,0.16,0.00,VWS V14.01,2013-12-22 02:11:00,
2013-12-21 21:12:00,44.5,43.7,29.80,NNW,328,0.0,1.0,97,0.00,,BKN033,0.16,0.00,VWS V14.01,2013-12-22 02:12:00,
2013-12-21 21:13:00,44.5,43.7,29.80,NNW,328,0.0,1.0,97,0.00,,BKN033,0.16,0.00,VWS V14.01,2013-12-22 02:13:00,
2013-12-21 21:14:00,44.5,43.7,29.80,NNW,328,0.0,1.0,97,0.00,,BKN033,0.16,0.00,VWS V14.01,2013-12-22 02:14:00,
2013-12-21 21:16:00,44.5,43.7,29.80,NNW,328,0.0,1.0,97,0.00,,BKN033,0.16,0.00,VWS V14.01,2013-12-22 02:16:00,
2013-12-21 21:17:00,44.6,43.8,29.80,NNW,328,0.0,1.0,97,0.00,,BKN033,0.16,0.00,VWS V14.01,2013-12-22 02:17:00,
2013-12-21 21:18:00,44.6,43.8,29.80,NNW,328,0.0,1.0,97,0.00,,BKN033,0.16,0.00,VWS V14.01,2013-12-22 02:18:00,
2013-12-21 21:19:00,44.6,43.8,29.80,NNW,328,0.0,1.0,97,0.00,,BKN033,0.16,0.00,VWS V14.01,2013-12-22 02:19:00,
2013-12-21 21:21:00,44.6,43.8,29.80,NNW,328,2.0,2.0,97,0.00,,BKN033,0.16,0.00,VWS V14.01,2013-12-22 02:21:00,
2013-12-21 21:23:00,44.6,43.8,29.80,NNW,328,0.0,2.0,97,0.00,,BKN033,0.16,0.00,VWS V14.01,2013-12-22 02:23:00,
2013-12-21 21:24:00,44.6,43.8,29.80,NNW,328,0.0,2.0,97,0.00,,BKN033,0.16,0.00,VWS V14.01,2013-12-22 02:24:00,
2013-12-21 21:25:00,44.6,43.8,29.80,NNW,328,0.0,2.0,97,0.00,,BKN033,0.16,0.00,VWS V14.01,2013-12-22 02:25:00,
2013-12-21 21:27:00,44.6,43.8,29.80,NNW,328,0.0,2.0,97,0.00,,BKN033,0.16,0.00,VWS V14.01,2013-12-22 02:27:00,
2013-12-21 21:28:00,44.6,43.8,29.80,NNW,328,0.0,2.0,97,0.00,,BKN033,0.16,0.00,VWS V14.01,2013-12-22 02:28:00,
2013-12-21 21:29:00,44.6,43.8,29.80,NNW,328,0.0,2.0,97,0.00,,BKN033,0.16,0.00,VWS V14.01,2013-12-22 02:29:00,
2013-12-21 21:30:00,44.6,43.8,29.80,NNW,328,1.0,2.0,97,0.00,,BKN033,0.16,0.00,VWS V14.01,2013-12-22 02:30:00,
2013-12-21 21:31:00,44.6,43.8,29.80,NNW,328,1.0,2.0,97,0.00,,BKN033,0.16,0.00,VWS V14.01,2013-12-22 02:31:00,
2013-12-21 21:32:00,44.6,43.8,29.80,NNW,328,0.0,2.0,97,0.00,,BKN033,0.16,0.00,VWS V14.01,2013-12-22 02:32:00,
2013-12-21 21:34:00,44.6,43.8,29.79,NNW,328,0.0,1.0,97,0.00,,BKN033,0.16,0.00,VWS V14.01,2013-12-22 02:34:00,
2013-12-21 21:35:00,44.6,43.8,29.79,NNW,328,0.0,1.0,97,0.00,,BKN033,0.16,0.00,VWS V14.01,2013-12-22 02:35:00,
2013-12-21 21:36:00,44.6,43.8,29.79,NNW,328,0.0,1.0,97,0.00,,BKN033,0.16,0.00,VWS V14.01,2013-12-22 02:36:00,
2013-12-21 21:37:00,44.6,43.8,29.79,NNW,328,0.0,1.0,97,0.00,,BKN033,0.16,0.00,VWS V14.01,2013-12-22 02:37:00,
2013-12-21 21:40:00,44.6,43.8,29.79,NNW,328,0.0,1.0,97,0.00,,BKN033,0.16,0.00,VWS V14.01,2013-12-22 02:40:00,
2013-12-21 21:41:00,44.6,43.8,29.79,NNW,328,0.0,1.0,97,0.00,,BKN033,0.16,0.00,VWS V14.01,2013-12-22 02:41:00,
2013-12-21 21:42:00,44.6,43.8,29.79,NNW,328,0.0,1.0,97,0.00,,BKN033,0.16,0.00,VWS V14.01,2013-12-22 02:42:00,
2013-12-21 21:43:00,44.8,44.0,29.79,NNW,330,1.0,2.0,97,0.00,,BKN033,0.16,0.00,VWS V14.01,2013-12-22 02:43:00,
2013-12-21 21:45:00,44.8,44.0,29.79,NNW,330,0.0,2.0,97,0.00,,BKN033,0.16,0.00,VWS V14.01,2013-12-22 02:45:00,
2013-12-21 21:47:00,44.8,44.0,29.79,NNW,330,0.0,2.0,97,0.00,,BKN033,0.16,0.00,VWS V14.01,2013-12-22 02:47:00,
2013-12-21 21:48:00,44.8,44.0,29.78,NNW,330,0.0,2.0,97,0.00,,BKN033,0.16,0.00,VWS V14.01,2013-12-22 02:48:00,
2013-12-21 21:49:00,44.9,44.1,29.78,NNW,330,0.0,2.0,97,0.00,,BKN033,0.16,0.00,VWS V14.01,2013-12-22 02:49:00,
2013-12-21 21:50:00,44.9,44.1,29.78,NNW,330,0.0,2.0,97,0.00,,BKN033,0.16,0.00,VWS V14.01,2013-12-22 02:50:00,
2013-12-21 21:51:00,44.9,44.1,29.78,NNW,330,0.0,2.0,97,0.00,,BKN033,0.16,0.00,VWS V14.01,2013-12-22 02:51:00,
2013-12-21 21:52:00,44.9,44.1,29.78,NNW,330,0.0,2.0,97,0.00,,BKN033,0.16,0.00,VWS V14.01,2013-12-22 02:52:00,
2013-12-21 21:54:00,44.9,44.1,29.78,NNW,330,0.0,2.0,97,0.00,,BKN033,0.16,0.00,VWS V14.01,2013-12-22 02:54:00,
2013-12-21 21:55:00,44.9,44.1,29.78,NNW,330,0.0,2.0,97,0.00,,BKN033,0.16,0.00,VWS V14.01,2013-12-22 02:55:00,
2013-12-21 21:56:00,44.9,44.1,29.78,NNW,330,0.0,2.0,97,0.00,,BKN033,0.16,0.00,VWS V14.01,2013-12-22 02:56:00,
2013-12-21 21:57:00,44.9,44.1,29.78,NNW,330,0.0,2.0,97,0.00,,BKN033,0.16,0.00,VWS V14.01,2013-12-22 02:57:00,
2013-12-21 21:58:00,44.9,44.1,29.78,NNW,330,0.0,2.0,97,0.00,,BKN033,0.16,0.00,VWS V14.01,2013-12-22 02:58:00,
2013-12-21 21:59:00,44.9,44.1,29.78,NNW,330,0.0,2.0,97,0.00,,BKN033,0.16,0.00,VWS V14.01,2013-12-22 02:59:00,
2013-12-21 22:00:00,44.9,44.1,29.78,NNW,330,1.0,2.0,97,0.00,,BKN033,0.16,0.00,VWS V14.01,2013-12-22 03:00:00,
2013-12-21 22:01:00,44.9,44.1,29.78,NNW,330,0.0,2.0,97,0.00,,OVC011,0.16,0.00,VWS V14.01,2013-12-22 03:01:00,
2013-12-21 22:03:00,44.9,44.1,29.79,NNW,330,1.0,2.0,97,0.00,,OVC011,0.16,0.00,VWS V14.01,2013-12-22 03:03:00,
2013-12-21 22:04:00,44.9,44.1,29.79,NNW,330,0.0,1.0,97,0.00,,OVC011,0.16,0.00,VWS V14.01,2013-12-22 03:04:00,
2013-12-21 22:05:00,44.8,44.0,29.79,NNW,330,0.0,1.0,97,0.00,,OVC011,0.16,0.00,VWS V14.01,2013-12-22 03:05:00,
2013-12-21 22:06:00,44.8,44.0,29.79,NNW,330,0.0,1.0,97,0.00,,OVC011,0.16,0.00,VWS V14.01,2013-12-22 03:06:00,
2013-12-21 22:09:00,44.8,44.0,29.79,NNW,330,0.0,1.0,97,0.00,,OVC011,0.16,0.00,VWS V14.01,2013-12-22 03:09:00,
2013-12-21 22:10:00,44.6,43.8,29.79,NNW,330,0.0,1.0,97,0.00,,OVC011,0.16,0.00,VWS V14.01,2013-12-22 03:10:00,
2013-12-21 22:11:00,44.6,43.8,29.79,NNW,330,0.0,1.0,97,0.00,,OVC011,0.16,0.00,VWS V14.01,2013-12-22 03:11:00,
2013-12-21 22:14:00,44.6,43.8,29.79,NNW,330,0.0,1.0,97,0.00,,OVC011,0.16,0.00,VWS V14.01,2013-12-22 03:14:00,
2013-12-21 22:16:00,44.6,43.8,29.79,NNW,330,0.0,1.0,97,0.00,,OVC011,0.16,0.00,VWS V14.01,2013-12-22 03:16:00,
2013-12-21 22:17:00,44.6,43.8,29.79,NNW,330,0.0,1.0,97,0.00,,OVC011,0.16,0.00,VWS V14.01,2013-12-22 03:17:00,
2013-12-21 22:19:00,44.6,43.8,29.78,NNW,330,0.0,1.0,97,0.00,,OVC011,0.16,0.00,VWS V14.01,2013-12-22 03:19:00,
2013-12-21 22:20:00,44.6,43.8,29.78,NNW,330,0.0,1.0,97,0.00,,OVC011,0.16,0.00,VWS V14.01,2013-12-22 03:20:00,
2013-12-21 22:21:00,44.6,43.8,29.78,NNW,330,0.0,1.0,97,0.00,,OVC011,0.16,0.00,VWS V14.01,2013-12-22 03:21:00,
2013-12-21 22:22:00,44.6,43.8,29.78,NNW,330,1.0,1.0,97,0.00,,OVC011,0.16,0.00,VWS V14.01,2013-12-22 03:22:00,
2013-12-21 22:25:00,44.5,43.7,29.78,West,268,1.0,2.0,97,0.00,,OVC011,0.16,0.00,VWS V14.01,2013-12-22 03:25:00,
2013-12-21 22:26:00,44.5,43.7,29.78,WSW,253,1.0,2.0,97,0.00,,OVC011,0.16,0.00,VWS V14.01,2013-12-22 03:26:00,
2013-12-21 22:27:00,44.5,43.7,29.78,WSW,250,1.0,2.0,97,0.00,,OVC011,0.16,0.00,VWS V14.01,2013-12-22 03:27:00,
2013-12-21 22:30:00,44.5,43.7,29.78,WSW,250,1.0,2.0,97,0.01,,OVC011,0.17,0.00,VWS V14.01,2013-12-22 03:30:00,
2013-12-21 22:31:00,44.5,43.7,29.78,WSW,250,1.0,2.0,97,0.01,,OVC011,0.17,0.00,VWS V14.01,2013-12-22 03:31:00,
2013-12-21 22:32:00,44.3,43.5,29.78,SW,219,0.0,2.0,97,0.01,,OVC011,0.17,0.00,VWS V14.01,2013-12-22 03:32:00,
2013-12-21 22:35:00,44.3,43.5,29.79,SSW,212,0.0,3.0,97,0.01,,OVC011,0.17,0.00,VWS V14.01,2013-12-22 03:35:00,
2013-12-21 22:36:00,44.3,43.5,29.79,SSW,212,1.0,3.0,97,0.01,,OVC011,0.17,0.00,VWS V14.01,2013-12-22 03:36:00,
2013-12-21 22:37:00,44.2,43.4,29.79,South,184,1.0,3.0,97,0.01,,OVC011,0.17,0.00,VWS V14.01,2013-12-22 03:37:00,
2013-12-21 22:38:00,44.2,43.4,29.79,South,184,0.0,3.0,97,0.01,,OVC011,0.17,0.00,VWS V14.01,2013-12-22 03:38:00,
2013-12-21 22:39:00,44.2,43.4,29.79,South,184,1.0,3.0,97,0.01,,OVC011,0.17,0.00,VWS V14.01,2013-12-22 03:39:00,
2013-12-21 22:40:00,44.2,43.4,29.79,South,184,2.0,3.0,97,0.01,,OVC011,0.17,0.00,VWS V14.01,2013-12-22 03:40:00,
2013-12-21 22:41:00,44.2,43.4,29.79,South,184,0.0,3.0,97,0.01,,OVC011,0.17,0.00,VWS V14.01,2013-12-22 03:41:00,
2013-12-21 22:42:00,44.2,43.4,29.79,South,181,1.0,3.0,97,0.01,,OVC011,0.17,0.00,VWS V14.01,2013-12-22 03:42:00,
2013-12-21 22:43:00,44.2,43.4,29.79,South,181,1.0,3.0,97,0.01,,OVC011,0.17,0.00,VWS V14.01,2013-12-22 03:43:00,
2013-12-21 22:45:00,44.2,43.4,29.79,South,181,0.0,3.0,97,0.01,,OVC011,0.17,0.00,VWS V14.01,2013-12-22 03:45:00,
2013-12-21 22:46:00,44.2,43.4,29.79,South,181,0.0,3.0,97,0.01,,OVC011,0.17,0.00,VWS V14.01,2013-12-22 03:46:00,
2013-12-21 22:47:00,44.1,43.3,29.79,South,181,0.0,3.0,97,0.01,,OVC011,0.17,0.00,VWS V14.01,2013-12-22 03:47:00,
2013-12-21 22:49:00,44.1,43.3,29.79,South,181,0.0,3.0,97,0.01,,OVC011,0.17,0.00,VWS V14.01,2013-12-22 03:49:00,
2013-12-21 22:50:00,44.1,43.3,29.79,South,181,0.0,3.0,97,0.01,,OVC011,0.17,0.00,VWS V14.01,2013-12-22 03:50:00,
2013-12-21 22:51:00,44.1,43.3,29.79,South,181,0.0,3.0,97,0.01,,OVC011,0.17,0.00,VWS V14.01,2013-12-22 03:51:00,
2013-12-21 22:52:00,44.1,43.3,29.79,South,181,0.0,3.0,97,0.01,,OVC011,0.17,0.00,VWS V14.01,2013-12-22 03:52:00,
2013-12-21 22:53:00,44.2,43.4,29.79,South,181,0.0,3.0,97,0.01,,OVC011,0.17,0.00,VWS V14.01,2013-12-22 03:53:00,
2013-12-21 22:54:00,44.2,43.4,29.79,South,181,0.0,3.0,97,0.01,,OVC011,0.17,0.00,VWS V14.01,2013-12-22 03:54:00,
2013-12-21 22:55:00,44.2,43.4,29.79,South,181,0.0,3.0,97,0.01,,OVC011,0.17,0.00,VWS V14.01,2013-12-22 03:55:00,
2013-12-21 22:56:00,44.2,43.4,29.79,South,181,0.0,3.0,97,0.01,,OVC011,0.17,0.00,VWS V14.01,2013-12-22 03:56:00,
2013-12-21 22:58:00,44.2,43.4,29.79,South,181,0.0,3.0,97,0.01,,OVC011,0.17,0.00,VWS V14.01,2013-12-22 03:58:00,
2013-12-21 22:59:00,44.2,43.4,29.79,South,181,0.0,3.0,97,0.02,,OVC011,0.18,0.00,VWS V14.01,2013-12-22 03:59:00,
2013-12-21 23:00:00,44.2,43.4,29.80,South,181,0.0,3.0,97,0.02,,,0.18,0.00,VWS V15.00,2013-12-22 04:00:00,
2013-12-21 23:01:00,44.2,43.4,29.79,South,181,0.0,3.0,97,0.02,,OVC013,0.18,0.00,VWS V14.01,2013-12-22 04:01:00,
2013-12-21 23:02:00,44.2,43.4,29.79,South,181,0.0,3.0,97,0.02,,OVC013,0.18,0.00,VWS V14.01,2013-12-22 04:02:00,
2013-12-21 23:03:00,44.2,43.4,29.80,South,181,0.0,0.0,97,0.02,,OVC013,0.18,0.00,VWS V14.01,2013-12-22 04:03:00,
2013-12-21 23:05:00,44.2,43.4,29.80,South,181,0.0,0.0,97,0.02,,OVC013,0.18,0.00,VWS V14.01,2013-12-22 04:05:00,
2013-12-21 23:06:00,44.2,43.4,29.80,South,181,0.0,0.0,97,0.02,,OVC013,0.18,0.00,VWS V14.01,2013-12-22 04:06:00,
2013-12-21 23:07:00,44.2,43.4,29.80,South,181,1.0,1.0,97,0.02,,OVC013,0.18,0.00,VWS V14.01,2013-12-22 04:07:00,
2013-12-21 23:08:00,44.2,43.4,29.80,South,181,1.0,1.0,97,0.02,,OVC013,0.18,0.00,VWS V14.01,2013-12-22 04:08:00,
2013-12-21 23:09:00,44.2,43.4,29.80,South,181,0.0,1.0,97,0.02,,OVC013,0.18,0.00,VWS V14.01,2013-12-22 04:09:00,
2013-12-21 23:11:00,44.2,43.4,29.80,South,181,0.0,1.0,97,0.02,,OVC013,0.18,0.00,VWS V14.01,2013-12-22 04:11:00,
2013-12-21 23:13:00,44.2,43.4,29.80,South,181,0.0,1.0,97,0.02,,OVC013,0.18,0.00,VWS V14.01,2013-12-22 04:13:00,
2013-12-21 23:14:00,44.2,43.4,29.80,South,181,0.0,1.0,97,0.02,,OVC013,0.18,0.00,VWS V14.01,2013-12-22 04:14:00,
2013-12-21 23:16:00,44.2,43.4,29.80,South,181,0.0,1.0,97,0.02,,OVC013,0.18,0.00,VWS V14.01,2013-12-22 04:16:00,
2013-12-21 23:17:00,44.2,43.4,29.80,South,181,0.0,1.0,97,0.02,,OVC013,0.18,0.00,VWS V14.01,2013-12-22 04:17:00,
2013-12-21 23:18:00,44.2,43.4,29.79,South,181,0.0,1.0,97,0.02,,OVC013,0.18,0.00,VWS V14.01,2013-12-22 04:18:00,
2013-12-21 23:19:00,44.2,43.4,29.79,South,181,0.0,1.0,97,0.02,,OVC013,0.18,0.00,VWS V14.01,2013-12-22 04:19:00,
2013-12-21 23:20:00,44.2,43.4,29.79,South,181,0.0,1.0,97,0.02,,OVC013,0.18,0.00,VWS V14.01,2013-12-22 04:20:00,
2013-12-21 23:21:00,44.2,43.4,29.79,South,181,0.0,1.0,97,0.02,,OVC013,0.18,0.00,VWS V14.01,2013-12-22 04:21:00,
2013-12-21 23:22:00,44.2,43.4,29.79,South,181,0.0,1.0,97,0.02,,OVC013,0.18,0.00,VWS V14.01,2013-12-22 04:22:00,
2013-12-21 23:23:00,44.2,43.4,29.79,South,181,1.0,1.0,97,0.02,,OVC013,0.18,0.00,VWS V14.01,2013-12-22 04:23:00,
2013-12-21 23:24:00,44.2,43.4,29.79,South,176,1.0,1.0,97,0.02,,OVC013,0.18,0.00,VWS V14.01,2013-12-22 04:24:00,
2013-12-21 23:25:00,44.2,43.4,29.79,South,176,1.0,2.0,97,0.02,,OVC013,0.18,0.00,VWS V14.01,2013-12-22 04:25:00,
2013-12-21 23:26:00,44.2,43.4,29.79,South,178,1.0,2.0,97,0.02,,OVC013,0.18,0.00,VWS V14.01,2013-12-22 04:26:00,
2013-12-21 23:27:00,44.2,43.4,29.79,South,176,1.0,2.0,97,0.02,,OVC013,0.18,0.00,VWS V14.01,2013-12-22 04:27:00,
2013-12-21 23:28:00,44.2,43.4,29.79,South,176,1.0,2.0,97,0.02,,OVC013,0.18,0.00,VWS V14.01,2013-12-22 04:28:00,
2013-12-21 23:30:00,44.1,43.3,29.79,South,178,0.0,2.0,97,0.02,,OVC013,0.18,0.00,VWS V14.01,2013-12-22 04:30:00,
2013-12-21 23:31:00,44.1,43.3,29.79,SE,144,1.0,2.0,97,0.02,,OVC013,0.18,0.00,VWS V14.01,2013-12-22 04:31:00,
2013-12-21 23:32:00,44.1,43.3,29.79,SSE,152,1.0,2.0,97,0.02,,OVC013,0.18,0.00,VWS V14.01,2013-12-22 04:32:00,
2013-12-21 23:33:00,44.1,43.3,29.79,SSE,152,1.0,1.0,97,0.01,,OVC013,0.18,0.00,VWS V14.01,2013-12-22 04:33:00,
2013-12-21 23:35:00,44.1,43.3,29.79,SSE,150,0.0,2.0,97,0.01,,OVC013,0.18,0.00,VWS V14.01,2013-12-22 04:35:00,
2013-12-21 23:37:00,44.1,43.3,29.79,SSE,150,1.0,2.0,97,0.01,,OVC013,0.18,0.00,VWS V14.01,2013-12-22 04:37:00,
2013-12-21 23:39:00,44.1,43.3,29.79,SSE,150,0.0,2.0,97,0.01,,OVC013,0.18,0.00,VWS V14.01,2013-12-22 04:39:00,
2013-12-21 23:41:00,44.1,43.3,29.79,SSE,150,1.0,2.0,97,0.01,,OVC013,0.18,0.00,VWS V14.01,2013-12-22 04:41:00,
2013-12-21 23:42:00,43.9,43.1,29.79,SSE,150,0.0,2.0,97,0.01,,OVC013,0.18,0.00,VWS V14.01,2013-12-22 04:42:00,
2013-12-21 23:43:00,43.9,43.1,29.79,SE,143,2.0,2.0,97,0.01,,OVC013,0.18,0.00,VWS V14.01,2013-12-22 04:43:00,
2013-12-21 23:44:00,43.9,43.1,29.79,East,100,1.0,2.0,97,0.01,,OVC013,0.18,0.00,VWS V14.01,2013-12-22 04:44:00,
2013-12-21 23:47:00,43.9,43.1,29.79,East,100,2.0,2.0,97,0.01,,OVC013,0.18,0.00,VWS V14.01,2013-12-22 04:47:00,
2013-12-21 23:48:00,43.9,43.1,29.78,East,95,2.0,3.0,97,0.01,,OVC013,0.18,0.00,VWS V14.01,2013-12-22 04:48:00,
2013-12-21 23:49:00,43.9,43.1,29.78,East,89,0.0,3.0,97,0.01,,OVC013,0.18,0.00,VWS V14.01,2013-12-22 04:49:00,
2013-12-21 23:52:00,43.8,43.0,29.78,East,92,2.0,3.0,97,0.01,,OVC013,0.18,0.00,VWS V14.01,2013-12-22 04:52:00,
2013-12-21 23:53:00,43.8,43.0,29.78,East,79,2.0,3.0,97,0.01,,OVC013,0.18,0.00,VWS V14.01,2013-12-22 04:53:00,
2013-12-21 23:54:00,43.8,43.0,29.78,ESE,103,1.0,3.0,97,0.01,,OVC013,0.18,0.00,VWS V14.01,2013-12-22 04:54:00,
2013-12-21 23:55:00,43.8,43.0,29.78,ESE,102,1.0,3.0,97,0.01,,OVC013,0.18,0.00,VWS V14.01,2013-12-22 04:55:00,
2013-12-21 23:58:00,43.6,42.8,29.78,East,99,1.0,3.0,97,0.01,,OVC013,0.18,0.00,VWS V14.01,2013-12-22 04:58:00,
2013-12-21 23:59:00,43.5,42.7,29.78,ESE,114,1.0,3.0,97,0.01,,OVC013,0.18,0.00,VWS V14.01,2013-12-22 04:59:00,